Time,TemperatureF,DewpointF,PressureIn,WindDirection,WindDirectionDegrees,WindSpeedMPH,WindSpeedGustMPH,Humidity,HourlyPrecipIn,Conditions,Clouds,dailyrainin,SoftwareType,DateUTC
2013-07-11 00:00:00,63.0,41.3,29.91,SW,225,0.0,0.0,45,0.00,,,0.00,VWS V14.01,2013-07-11 05:00:00,
2013-07-11 00:01:00,63.0,41.3,29.91,SW,225,0.0,0.0,45,0.00,,,0.00,VWS V14.01,2013-07-11 05:01:00,
2013-07-11 00:02:00,63.0,41.3,29.91,SW,225,0.0,0.0,45,0.00,,,0.00,VWS V14.01,2013-07-11 05:02:00,
2013-07-11 00:04:00,62.8,41.2,29.91,SW,225,0.0,0.0,45,0.00,,,0.00,VWS V14.01,2013-07-11 05:04:00,
2013-07-11 00:06:00,62.8,41.2,29.91,SW,225,0.0,0.0,45,0.00,,,0.00,VWS V14.01,2013-07-11 05:06:00,
2013-07-11 00:08:00,62.8,41.2,29.91,SW,225,0.0,0.0,45,0.00,,,0.00,VWS V14.01,2013-07-11 05:08:00,
2013-07-11 00:10:00,62.6,41.5,29.91,SW,225,0.0,0.0,46,0.00,,,0.00,VWS V14.01,2013-07-11 05:10:00,
2013-07-11 00:11:00,62.6,41.5,29.91,SW,225,0.0,0.0,46,0.00,,,0.00,VWS V14.01,2013-07-11 05:11:00,
2013-07-11 00:12:00,62.6,41.0,29.91,SW,225,0.0,0.0,45,0.00,,,0.00,VWS V14.01,2013-07-11 05:12:00,
2013-07-11 00:14:00,62.6,41.5,29.91,SW,225,0.0,0.0,46,0.00,,,0.00,VWS V14.01,2013-07-11 05:14:00,
2013-07-11 00:16:00,62.6,41.5,29.91,SW,225,0.0,0.0,46,0.00,,,0.00,VWS V14.01,2013-07-11 05:16:00,
2013-07-11 00:18:00,62.4,42.5,29.91,SSW,202,0.0,0.0,48,0.00,,,0.00,VWS V14.01,2013-07-11 05:18:00,
2013-07-11 00:20:00,62.4,41.9,29.91,SSW,202,0.0,0.0,47,0.00,,,0.00,VWS V14.01,2013-07-11 05:20:00,
2013-07-11 00:21:00,62.4,41.9,29.91,SSW,202,0.0,0.0,47,0.00,,,0.00,VWS V14.01,2013-07-11 05:21:00,
2013-07-11 00:22:00,62.2,41.8,29.91,SSW,202,0.0,0.0,47,0.00,,,0.00,VWS V14.01,2013-07-11 05:22:00,
2013-07-11 00:24:00,62.2,42.3,29.91,SSW,202,0.0,0.0,48,0.00,,,0.00,VWS V14.01,2013-07-11 05:24:00,
2013-07-11 00:26:00,62.2,42.3,29.91,SSW,202,0.0,0.0,48,0.00,,,0.00,VWS V14.01,2013-07-11 05:26:00,
2013-07-11 00:28:00,62.2,42.3,29.91,SSW,202,0.0,0.0,48,0.00,,,0.00,VWS V14.01,2013-07-11 05:28:00,
2013-07-11 00:30:00,62.1,42.7,29.91,SW,225,0.0,0.0,49,0.00,,,0.00,VWS V14.01,2013-07-11 05:30:00,
2013-07-11 00:31:00,62.1,42.2,29.91,SSW,202,0.0,0.0,48,0.00,,,0.00,VWS V14.01,2013-07-11 05:31:00,
2013-07-11 00:32:00,62.1,42.7,29.91,SW,225,0.0,0.0,49,0.00,,,0.00,VWS V14.01,2013-07-11 05:32:00,
2013-07-11 00:34:00,62.1,42.7,29.91,SW,225,0.0,0.0,49,0.00,,,0.00,VWS V14.01,2013-07-11 05:34:00,
2013-07-11 00:36:00,61.9,42.5,29.91,SW,225,0.0,0.0,49,0.00,,,0.00,VWS V14.01,2013-07-11 05:36:00,
2013-07-11 00:38:00,61.9,42.5,29.91,SW,225,0.0,0.0,49,0.00,,,0.00,VWS V14.01,2013-07-11 05:38:00,
2013-07-11 00:40:00,61.9,42.5,29.91,SW,225,0.0,0.0,49,0.00,,,0.00,VWS V14.01,2013-07-11 05:40:00,
2013-07-11 00:41:00,61.9,42.5,29.91,SW,225,0.0,0.0,49,0.00,,,0.00,VWS V14.01,2013-07-11 05:41:00,
2013-07-11 00:42:00,61.9,42.5,29.91,SW,225,0.0,0.0,49,0.00,,,0.00,VWS V14.01,2013-07-11 05:42:00,
2013-07-11 00:44:00,61.9,44.1,29.91,SSW,202,0.0,0.0,52,0.00,,,0.00,VWS V14.01,2013-07-11 05:44:00,
2013-07-11 00:46:00,61.7,43.4,29.91,SSW,202,0.0,0.0,51,0.00,,,0.00,VWS V14.01,2013-07-11 05:46:00,
2013-07-11 00:48:00,61.9,43.1,29.91,SW,225,0.0,0.0,50,0.00,,,0.00,VWS V14.01,2013-07-11 05:48:00,
2013-07-11 00:50:00,61.9,43.6,29.91,SW,225,0.0,0.0,51,0.00,,,0.00,VWS V14.01,2013-07-11 05:50:00,
2013-07-11 00:51:00,61.9,43.6,29.91,SW,225,0.0,0.0,51,0.00,,,0.00,VWS V14.01,2013-07-11 05:51:00,
2013-07-11 00:52:00,61.7,43.4,29.91,SW,225,0.0,0.0,51,0.00,,,0.00,VWS V14.01,2013-07-11 05:52:00,
2013-07-11 00:54:00,61.7,43.9,29.91,SW,225,0.0,0.0,52,0.00,,,0.00,VWS V14.01,2013-07-11 05:54:00,
2013-07-11 00:56:00,61.7,43.9,29.91,SW,225,0.0,0.0,52,0.00,,,0.00,VWS V14.01,2013-07-11 05:56:00,
2013-07-11 00:58:00,61.5,43.2,29.91,SW,225,0.0,0.0,51,0.00,,,0.00,VWS V14.01,2013-07-11 05:58:00,
2013-07-11 01:00:00,61.5,43.2,29.91,SW,225,0.0,0.0,51,0.00,,,0.00,VWS V14.01,2013-07-11 06:00:00,
2013-07-11 01:01:00,61.5,43.2,29.91,SW,225,0.0,0.0,51,0.00,,,0.00,VWS V14.01,2013-07-11 06:01:00,
2013-07-11 01:02:00,61.5,43.2,29.91,SW,225,0.0,0.0,51,0.00,,,0.00,VWS V14.01,2013-07-11 06:02:00,
2013-07-11 01:04:00,61.5,43.2,29.91,SW,225,0.0,0.0,51,0.00,,,0.00,VWS V14.01,2013-07-11 06:04:00,
2013-07-11 01:06:00,61.5,43.2,29.91,SW,225,0.0,0.0,51,0.00,,,0.00,VWS V14.01,2013-07-11 06:06:00,
2013-07-11 01:08:00,61.3,43.1,29.91,SW,225,0.0,0.0,51,0.00,,,0.00,VWS V14.01,2013-07-11 06:08:00,
2013-07-11 01:10:00,61.3,43.6,29.91,SW,225,0.0,0.0,52,0.00,,,0.00,VWS V14.01,2013-07-11 06:10:00,
2013-07-11 01:11:00,61.3,43.6,29.91,SW,225,0.0,0.0,52,0.00,,,0.00,VWS V14.01,2013-07-11 06:11:00,
2013-07-11 01:12:00,61.3,43.6,29.91,SW,225,0.0,0.0,52,0.00,,,0.00,VWS V14.01,2013-07-11 06:12:00,
2013-07-11 01:14:00,61.3,43.6,29.91,SW,225,0.0,0.0,52,0.00,,,0.00,VWS V14.01,2013-07-11 06:14:00,
2013-07-11 01:16:00,61.3,43.6,29.91,SW,225,0.0,0.0,52,0.00,,,0.00,VWS V14.01,2013-07-11 06:16:00,
2013-07-11 01:18:00,61.2,43.4,29.91,SW,225,0.0,0.0,52,0.00,,,0.00,VWS V14.01,2013-07-11 06:18:00,
2013-07-11 01:20:00,61.2,43.9,29.91,SW,225,0.0,0.0,53,0.00,,,0.00,VWS V14.01,2013-07-11 06:20:00,
2013-07-11 01:21:00,61.2,43.9,29.91,SW,225,0.0,0.0,53,0.00,,,0.00,VWS V14.01,2013-07-11 06:21:00,
2013-07-11 01:22:00,61.2,43.9,29.91,SW,225,0.0,0.0,53,0.00,,,0.00,VWS V14.01,2013-07-11 06:22:00,
2013-07-11 01:24:00,61.2,43.4,29.91,SW,225,0.0,0.0,52,0.00,,,0.00,VWS V14.01,2013-07-11 06:24:00,
2013-07-11 01:26:00,61.2,43.9,29.91,SW,225,0.0,0.0,53,0.00,,,0.00,VWS V14.01,2013-07-11 06:26:00,
2013-07-11 01:28:00,61.2,43.9,29.91,SW,225,0.0,0.0,53,0.00,,,0.00,VWS V14.01,2013-07-11 06:28:00,
2013-07-11 01:30:00,61.0,44.2,29.91,SSW,202,0.0,0.0,54,0.00,,,0.00,VWS V14.01,2013-07-11 06:30:00,
2013-07-11 01:31:00,61.0,44.2,29.91,SW,225,0.0,0.0,54,0.00,,,0.00,VWS V14.01,2013-07-11 06:31:00,
2013-07-11 01:32:00,61.0,44.2,29.91,SSW,202,0.0,0.0,54,0.00,,,0.00,VWS V14.01,2013-07-11 06:32:00,
2013-07-11 01:34:00,61.0,44.2,29.91,SSW,202,0.0,0.0,54,0.00,,,0.00,VWS V14.01,2013-07-11 06:34:00,
2013-07-11 01:36:00,61.0,44.2,29.91,SSW,202,0.0,0.0,54,0.00,,,0.00,VWS V14.01,2013-07-11 06:36:00,
2013-07-11 01:38:00,60.8,44.5,29.91,SSW,202,0.0,0.0,55,0.00,,,0.00,VWS V14.01,2013-07-11 06:38:00,
2013-07-11 01:40:00,60.6,44.8,29.91,SSW,202,0.0,0.0,56,0.00,,,0.00,VWS V14.01,2013-07-11 06:40:00,
2013-07-11 01:41:00,60.6,44.8,29.91,SSW,202,0.0,0.0,56,0.00,,,0.00,VWS V14.01,2013-07-11 06:41:00,
2013-07-11 01:42:00,60.6,45.3,29.91,SSW,202,0.0,0.0,57,0.00,,,0.00,VWS V14.01,2013-07-11 06:42:00,
2013-07-11 01:44:00,60.4,45.2,29.91,SSW,202,0.0,0.0,57,0.00,,,0.00,VWS V14.01,2013-07-11 06:44:00,
2013-07-11 01:46:00,60.4,45.2,29.91,SSW,202,0.0,0.0,57,0.00,,,0.00,VWS V14.01,2013-07-11 06:46:00,
2013-07-11 01:48:00,60.4,45.6,29.91,SSW,202,0.0,0.0,58,0.00,,,0.00,VWS V14.01,2013-07-11 06:48:00,
2013-07-11 01:50:00,60.3,45.9,29.91,SSW,202,0.0,0.0,59,0.00,,,0.00,VWS V14.01,2013-07-11 06:50:00,
2013-07-11 01:51:00,60.3,45.9,29.91,SSW,202,0.0,0.0,59,0.00,,,0.00,VWS V14.01,2013-07-11 06:51:00,
2013-07-11 01:52:00,60.3,45.9,29.91,SSW,202,0.0,0.0,59,0.00,,,0.00,VWS V14.01,2013-07-11 06:52:00,
2013-07-11 01:54:00,60.1,45.7,29.91,SSW,202,0.0,0.0,59,0.00,,,0.00,VWS V14.01,2013-07-11 06:54:00,
2013-07-11 01:56:00,60.1,45.7,29.91,SSW,202,0.0,0.0,59,0.00,,,0.00,VWS V14.01,2013-07-11 06:56:00,
2013-07-11 01:58:00,60.1,46.2,29.91,SSW,202,0.0,0.0,60,0.00,,,0.00,VWS V14.01,2013-07-11 06:58:00,
2013-07-11 02:00:00,60.1,46.2,29.91,SSW,202,0.0,0.0,60,0.00,,,0.00,VWS V14.01,2013-07-11 07:00:00,
2013-07-11 02:01:00,60.1,46.2,29.91,SSW,202,0.0,0.0,60,0.00,,,0.00,VWS V14.01,2013-07-11 07:01:00,
2013-07-11 02:02:00,59.9,45.5,29.91,SSW,202,0.0,0.0,59,0.00,,,0.00,VWS V14.01,2013-07-11 07:02:00,
2013-07-11 02:04:00,59.9,45.5,29.91,SSW,202,0.0,0.0,59,0.00,,,0.00,VWS V14.01,2013-07-11 07:04:00,
2013-07-11 02:06:00,59.9,45.5,29.91,SSW,202,0.0,0.0,59,0.00,,,0.00,VWS V14.01,2013-07-11 07:06:00,
2013-07-11 02:08:00,59.7,45.8,29.91,SSW,202,0.0,0.0,60,0.00,,,0.00,VWS V14.01,2013-07-11 07:08:00,
2013-07-11 02:10:00,59.7,45.8,29.91,SSW,202,0.0,0.0,60,0.00,,,0.00,VWS V14.01,2013-07-11 07:10:00,
2013-07-11 02:11:00,59.7,45.8,29.91,SSW,202,0.0,0.0,60,0.00,,,0.00,VWS V14.01,2013-07-11 07:11:00,
2013-07-11 02:12:00,59.7,45.8,29.91,SSW,202,0.0,0.0,60,0.00,,,0.00,VWS V14.01,2013-07-11 07:12:00,
2013-07-11 02:14:00,59.7,46.3,29.91,SSW,202,0.0,0.0,61,0.00,,,0.00,VWS V14.01,2013-07-11 07:14:00,
2013-07-11 02:16:00,59.7,46.3,29.91,SSW,202,0.0,0.0,61,0.00,,,0.00,VWS V14.01,2013-07-11 07:16:00,
2013-07-11 02:18:00,59.7,46.7,29.91,SSW,202,0.0,0.0,62,0.00,,,0.00,VWS V14.01,2013-07-11 07:18:00,
2013-07-11 02:20:00,59.7,46.7,29.91,SSW,202,0.0,0.0,62,0.00,,,0.00,VWS V14.01,2013-07-11 07:20:00,
2013-07-11 02:21:00,59.7,46.7,29.91,SSW,202,0.0,0.0,62,0.00,,,0.00,VWS V14.01,2013-07-11 07:21:00,
2013-07-11 02:22:00,59.7,46.7,29.91,SSW,202,0.0,0.0,62,0.00,,,0.00,VWS V14.01,2013-07-11 07:22:00,
2013-07-11 02:24:00,59.5,47.0,29.91,SSW,202,0.0,0.0,63,0.00,,,0.00,VWS V14.01,2013-07-11 07:24:00,
2013-07-11 02:26:00,59.5,46.5,29.91,SSW,202,0.0,0.0,62,0.00,,,0.00,VWS V14.01,2013-07-11 07:26:00,
2013-07-11 02:28:00,59.5,46.5,29.91,SSW,202,0.0,0.0,62,0.00,,,0.00,VWS V14.01,2013-07-11 07:28:00,
2013-07-11 02:30:00,59.4,46.3,29.91,SSW,202,0.0,0.0,62,0.00,,,0.00,VWS V14.01,2013-07-11 07:30:00,
2013-07-11 02:31:00,59.4,45.9,29.91,SSW,202,0.0,0.0,61,0.00,,,0.00,VWS V14.01,2013-07-11 07:31:00,
2013-07-11 02:32:00,59.4,46.8,29.91,SSW,202,0.0,0.0,63,0.00,,,0.00,VWS V14.01,2013-07-11 07:32:00,
2013-07-11 02:34:00,59.2,46.6,29.91,SSW,202,0.0,0.0,63,0.00,,,0.00,VWS V14.01,2013-07-11 07:34:00,
2013-07-11 02:36:00,59.2,46.6,29.91,SSW,202,0.0,0.0,63,0.00,,,0.00,VWS V14.01,2013-07-11 07:36:00,
2013-07-11 02:38:00,59.2,47.0,29.91,SSW,202,0.0,0.0,64,0.00,,,0.00,VWS V14.01,2013-07-11 07:38:00,
2013-07-11 02:40:00,59.0,47.3,29.91,SSW,202,0.0,0.0,65,0.00,,,0.00,VWS V14.01,2013-07-11 07:40:00,
2013-07-11 02:41:00,59.0,47.3,29.91,SSW,202,0.0,0.0,65,0.00,,,0.00,VWS V14.01,2013-07-11 07:41:00,
2013-07-11 02:42:00,59.0,47.3,29.91,SSW,202,0.0,0.0,65,0.00,,,0.00,VWS V14.01,2013-07-11 07:42:00,
2013-07-11 02:44:00,59.0,47.3,29.91,SSW,202,0.0,0.0,65,0.00,,,0.00,VWS V14.01,2013-07-11 07:44:00,
2013-07-11 02:46:00,59.0,47.3,29.91,SSW,202,0.0,0.0,65,0.00,,,0.00,VWS V14.01,2013-07-11 07:46:00,
2013-07-11 02:48:00,58.8,47.1,29.91,SSW,202,0.0,0.0,65,0.00,,,0.00,VWS V14.01,2013-07-11 07:48:00,
2013-07-11 02:50:00,58.8,47.1,29.91,SSW,202,0.0,0.0,65,0.00,,,0.00,VWS V14.01,2013-07-11 07:50:00,
2013-07-11 02:51:00,58.8,47.1,29.91,SSW,202,0.0,0.0,65,0.00,,,0.00,VWS V14.01,2013-07-11 07:51:00,
2013-07-11 02:52:00,58.8,47.1,29.91,SSW,202,0.0,0.0,65,0.00,,,0.00,VWS V14.01,2013-07-11 07:52:00,
2013-07-11 02:54:00,58.8,47.1,29.91,SSW,202,0.0,0.0,65,0.00,,,0.00,VWS V14.01,2013-07-11 07:54:00,
2013-07-11 02:56:00,58.8,47.1,29.91,SSW,202,0.0,0.0,65,0.00,,,0.00,VWS V14.01,2013-07-11 07:56:00,
2013-07-11 02:58:00,58.6,46.5,29.91,SSW,202,0.0,0.0,64,0.00,,,0.00,VWS V14.01,2013-07-11 07:58:00,
2013-07-11 03:00:00,58.6,46.5,29.91,SE,135,0.0,0.0,64,0.00,,,0.00,VWS V14.01,2013-07-11 08:00:00,
2013-07-11 03:01:00,58.6,46.5,29.91,SE,135,0.0,0.0,64,0.00,,,0.00,VWS V14.01,2013-07-11 08:01:00,
2013-07-11 03:02:00,58.8,46.7,29.91,SE,135,0.0,0.0,64,0.00,,,0.00,VWS V14.01,2013-07-11 08:02:00,
2013-07-11 03:04:00,58.8,47.1,29.91,SE,135,0.0,0.0,65,0.00,,,0.00,VWS V14.01,2013-07-11 08:04:00,
2013-07-11 03:06:00,58.8,46.7,29.91,SE,135,0.0,0.0,64,0.00,,,0.00,VWS V14.01,2013-07-11 08:06:00,
2013-07-11 03:08:00,58.6,46.9,29.91,SE,135,0.0,0.0,65,0.00,,,0.00,VWS V14.01,2013-07-11 08:08:00,
2013-07-11 03:10:00,58.6,46.9,29.91,SE,135,0.0,0.0,65,0.00,,,0.00,VWS V14.01,2013-07-11 08:10:00,
2013-07-11 03:11:00,58.6,46.9,29.91,SE,135,0.0,0.0,65,0.00,,,0.00,VWS V14.01,2013-07-11 08:11:00,
2013-07-11 03:12:00,58.8,47.5,29.91,SSE,158,0.0,0.0,66,0.00,,,0.00,VWS V14.01,2013-07-11 08:12:00,
2013-07-11 03:14:00,58.8,47.5,29.91,ENE,68,0.0,0.0,66,0.00,,,0.00,VWS V14.01,2013-07-11 08:14:00,
2013-07-11 03:16:00,58.6,47.3,29.91,ENE,68,0.0,0.0,66,0.00,,,0.00,VWS V14.01,2013-07-11 08:16:00,
2013-07-11 03:18:00,58.6,46.5,29.91,SSE,158,0.0,2.5,64,0.00,,,0.00,VWS V14.01,2013-07-11 08:18:00,
2013-07-11 03:20:00,58.6,46.9,29.91,SSE,158,0.0,0.0,65,0.00,,,0.00,VWS V14.01,2013-07-11 08:20:00,
2013-07-11 03:21:00,58.6,46.9,29.91,SSE,158,0.0,0.0,65,0.00,,,0.00,VWS V14.01,2013-07-11 08:21:00,
2013-07-11 03:22:00,58.5,47.2,29.91,ESE,112,0.0,0.9,66,0.00,,,0.00,VWS V14.01,2013-07-11 08:22:00,
2013-07-11 03:24:00,58.5,46.8,29.91,ENE,68,0.0,0.0,65,0.00,,,0.00,VWS V14.01,2013-07-11 08:24:00,
2013-07-11 03:26:00,58.5,46.8,29.91,ENE,68,2.7,2.7,65,0.00,,,0.00,VWS V14.01,2013-07-11 08:26:00,
2013-07-11 03:28:00,58.5,46.8,29.91,ENE,68,0.0,0.0,65,0.00,,,0.00,VWS V14.01,2013-07-11 08:28:00,
2013-07-11 03:30:00,58.5,47.2,29.91,ENE,68,0.0,0.0,66,0.00,,,0.00,VWS V14.01,2013-07-11 08:30:00,
2013-07-11 03:31:00,58.5,47.2,29.91,ENE,68,0.0,0.0,66,0.00,,,0.00,VWS V14.01,2013-07-11 08:31:00,
2013-07-11 03:32:00,58.5,47.2,29.91,ENE,68,0.0,0.0,66,0.00,,,0.00,VWS V14.01,2013-07-11 08:32:00,
2013-07-11 03:34:00,58.5,47.2,29.91,ENE,68,0.0,0.0,66,0.00,,,0.00,VWS V14.01,2013-07-11 08:34:00,
2013-07-11 03:36:00,58.5,47.2,29.91,ENE,68,0.0,0.0,66,0.00,,,0.00,VWS V14.01,2013-07-11 08:36:00,
2013-07-11 03:38:00,58.5,47.6,29.91,ENE,68,0.0,0.0,67,0.00,,,0.00,VWS V14.01,2013-07-11 08:38:00,
2013-07-11 03:40:00,58.5,48.0,29.91,ENE,68,0.0,0.0,68,0.00,,,0.00,VWS V14.01,2013-07-11 08:40:00,
2013-07-11 03:41:00,58.5,47.6,29.91,ENE,68,0.0,0.0,67,0.00,,,0.00,VWS V14.01,2013-07-11 08:41:00,
2013-07-11 03:42:00,58.6,48.5,29.91,ENE,68,0.0,0.0,69,0.00,,,0.00,VWS V14.01,2013-07-11 08:42:00,
2013-07-11 03:44:00,58.6,48.5,29.94,ENE,68,0.0,0.0,69,0.00,,,0.00,VWS V14.01,2013-07-11 08:44:00,
2013-07-11 03:46:00,58.6,48.5,29.94,ENE,68,0.0,0.0,69,0.00,,,0.00,VWS V14.01,2013-07-11 08:46:00,
2013-07-11 03:48:00,58.6,48.5,29.94,SSW,202,0.0,0.0,69,0.00,,,0.00,VWS V14.01,2013-07-11 08:48:00,
2013-07-11 03:50:00,58.5,48.3,29.94,SSW,202,0.0,0.0,69,0.00,,,0.00,VWS V14.01,2013-07-11 08:50:00,
2013-07-11 03:51:00,58.5,48.3,29.94,SSW,202,0.0,0.0,69,0.00,,,0.00,VWS V14.01,2013-07-11 08:51:00,
2013-07-11 03:52:00,58.6,48.5,29.94,SSW,202,0.0,0.0,69,0.00,,,0.00,VWS V14.01,2013-07-11 08:52:00,
2013-07-11 03:54:00,58.6,48.9,29.94,SSW,202,0.0,0.0,70,0.00,,,0.00,VWS V14.01,2013-07-11 08:54:00,
2013-07-11 03:56:00,58.6,48.9,29.94,SSW,202,0.0,0.0,70,0.00,,,0.00,VWS V14.01,2013-07-11 08:56:00,
2013-07-11 03:58:00,58.6,48.9,29.94,SSW,202,0.0,0.0,70,0.00,,,0.00,VWS V14.01,2013-07-11 08:58:00,
2013-07-11 04:00:00,58.6,48.9,29.94,SSW,202,0.0,0.0,70,0.00,,,0.00,VWS V14.01,2013-07-11 09:00:00,
2013-07-11 04:01:00,58.6,48.9,29.94,SSW,202,0.0,0.0,70,0.00,,,0.00,VWS V14.01,2013-07-11 09:01:00,
2013-07-11 04:02:00,58.5,49.1,29.94,SSW,202,0.0,0.0,71,0.00,,,0.00,VWS V14.01,2013-07-11 09:02:00,
2013-07-11 04:04:00,58.5,49.1,29.94,SSW,202,0.0,0.0,71,0.00,,,0.00,VWS V14.01,2013-07-11 09:04:00,
2013-07-11 04:06:00,58.5,49.1,29.94,SSW,202,0.0,0.0,71,0.00,,,0.00,VWS V14.01,2013-07-11 09:06:00,
2013-07-11 04:08:00,58.5,48.7,29.94,SSW,202,0.0,0.0,70,0.00,,,0.00,VWS V14.01,2013-07-11 09:08:00,
2013-07-11 04:10:00,58.5,49.1,29.94,SSW,202,0.0,0.0,71,0.00,,,0.00,VWS V14.01,2013-07-11 09:10:00,
2013-07-11 04:11:00,58.5,49.1,29.94,SSW,202,0.0,0.0,71,0.00,,,0.00,VWS V14.01,2013-07-11 09:11:00,
2013-07-11 04:12:00,58.5,49.1,29.94,SSW,202,0.0,0.0,71,0.00,,,0.00,VWS V14.01,2013-07-11 09:12:00,
2013-07-11 04:14:00,58.5,49.1,29.94,SSW,202,0.0,0.0,71,0.00,,,0.00,VWS V14.01,2013-07-11 09:14:00,
2013-07-11 04:16:00,58.5,49.1,29.94,SSW,202,0.0,0.0,71,0.00,,,0.00,VWS V14.01,2013-07-11 09:16:00,
2013-07-11 04:18:00,58.3,48.9,29.94,SSW,202,0.0,0.0,71,0.00,,,0.00,VWS V14.01,2013-07-11 09:18:00,
2013-07-11 04:20:00,58.3,48.9,29.94,SSW,202,0.0,0.0,71,0.00,,,0.00,VWS V14.01,2013-07-11 09:20:00,
2013-07-11 04:21:00,58.3,48.9,29.94,SSW,202,0.0,0.0,71,0.00,,,0.00,VWS V14.01,2013-07-11 09:21:00,
2013-07-11 04:22:00,58.3,48.9,29.94,SSW,202,0.0,0.0,71,0.00,,,0.00,VWS V14.01,2013-07-11 09:22:00,
2013-07-11 04:24:00,58.3,48.9,29.94,SSW,202,0.0,0.0,71,0.00,,,0.00,VWS V14.01,2013-07-11 09:24:00,
2013-07-11 04:26:00,58.3,48.9,29.94,SSW,202,0.0,0.0,71,0.00,,,0.00,VWS V14.01,2013-07-11 09:26:00,
2013-07-11 04:28:00,58.3,49.3,29.94,SSW,202,0.0,0.0,72,0.00,,,0.00,VWS V14.01,2013-07-11 09:28:00,
2013-07-11 04:30:00,58.1,48.8,29.94,SSW,202,0.0,0.0,71,0.00,,,0.00,VWS V14.01,2013-07-11 09:30:00,
2013-07-11 04:31:00,58.1,48.8,29.94,SSW,202,0.0,0.0,71,0.00,,,0.00,VWS V14.01,2013-07-11 09:31:00,
2013-07-11 04:32:00,58.1,48.4,29.94,SSW,202,0.0,0.0,70,0.00,,,0.00,VWS V14.01,2013-07-11 09:32:00,
2013-07-11 04:34:00,58.3,48.9,29.94,SSW,202,3.4,3.4,71,0.00,,,0.00,VWS V14.01,2013-07-11 09:34:00,
2013-07-11 04:36:00,58.3,48.9,29.94,SSW,202,0.0,1.6,71,0.00,,,0.00,VWS V14.01,2013-07-11 09:36:00,
2013-07-11 04:38:00,58.3,49.3,29.94,SSW,202,0.0,0.0,72,0.00,,,0.00,VWS V14.01,2013-07-11 09:38:00,
2013-07-11 04:40:00,58.3,49.7,29.94,SSW,202,0.0,1.6,73,0.00,,,0.00,VWS V14.01,2013-07-11 09:40:00,
2013-07-11 04:41:00,58.3,49.7,29.94,SSW,202,0.0,1.6,73,0.00,,,0.00,VWS V14.01,2013-07-11 09:41:00,
2013-07-11 04:42:00,58.1,49.5,29.94,SSW,202,0.0,0.0,73,0.00,,,0.00,VWS V14.01,2013-07-11 09:42:00,
2013-07-11 04:44:00,58.1,49.5,29.94,SSW,202,0.0,0.0,73,0.00,,,0.00,VWS V14.01,2013-07-11 09:44:00,
2013-07-11 04:46:00,58.1,49.5,29.94,SSW,202,0.0,0.0,73,0.00,,,0.00,VWS V14.01,2013-07-11 09:46:00,
2013-07-11 04:48:00,58.1,49.5,29.94,SSW,202,0.0,0.0,73,0.00,,,0.00,VWS V14.01,2013-07-11 09:48:00,
2013-07-11 04:50:00,58.1,49.5,29.94,SSW,202,0.0,0.0,73,0.00,,,0.00,VWS V14.01,2013-07-11 09:50:00,
2013-07-11 04:51:00,58.1,49.5,29.94,SSW,202,0.0,0.0,73,0.00,,,0.00,VWS V14.01,2013-07-11 09:51:00,
2013-07-11 04:52:00,58.1,49.9,29.94,SSW,202,0.0,0.0,74,0.00,,,0.00,VWS V14.01,2013-07-11 09:52:00,
2013-07-11 04:54:00,58.3,50.0,29.94,SSW,202,0.0,0.0,74,0.00,,,0.00,VWS V14.01,2013-07-11 09:54:00,
2013-07-11 04:56:00,58.3,50.0,29.94,SSW,202,0.0,0.0,74,0.00,,,0.00,VWS V14.01,2013-07-11 09:56:00,
2013-07-11 04:58:00,58.3,50.0,29.94,SSW,202,0.0,0.0,74,0.00,,,0.00,VWS V14.01,2013-07-11 09:58:00,
2013-07-11 05:00:00,58.1,49.9,29.94,SSW,202,0.0,0.0,74,0.00,,,0.00,VWS V14.01,2013-07-11 10:00:00,
2013-07-11 05:01:00,58.1,49.9,29.94,SSW,202,0.0,0.0,74,0.00,,,0.00,VWS V14.01,2013-07-11 10:01:00,
2013-07-11 05:02:00,58.1,49.9,29.94,SSW,202,0.0,0.0,74,0.00,,,0.00,VWS V14.01,2013-07-11 10:02:00,
2013-07-11 05:04:00,58.1,49.9,29.94,SSW,202,0.0,0.0,74,0.00,,,0.00,VWS V14.01,2013-07-11 10:04:00,
2013-07-11 05:06:00,58.1,49.9,29.94,SSW,202,0.0,0.0,74,0.00,,,0.00,VWS V14.01,2013-07-11 10:06:00,
2013-07-11 05:08:00,58.1,49.9,29.94,SSW,202,0.0,0.0,74,0.00,,,0.00,VWS V14.01,2013-07-11 10:08:00,
2013-07-11 05:10:00,58.1,49.9,29.94,SSW,202,0.0,0.0,74,0.00,,,0.00,VWS V14.01,2013-07-11 10:10:00,
2013-07-11 05:11:00,58.1,49.9,29.94,SSW,202,0.0,0.0,74,0.00,,,0.00,VWS V14.01,2013-07-11 10:11:00,
2013-07-11 05:12:00,58.1,50.2,29.94,SSW,202,0.0,0.0,75,0.00,,,0.00,VWS V14.01,2013-07-11 10:12:00,
2013-07-11 05:14:00,58.1,50.2,29.94,SSW,202,0.0,0.0,75,0.00,,,0.00,VWS V14.01,2013-07-11 10:14:00,
2013-07-11 05:16:00,57.9,50.0,29.94,SSW,202,0.0,0.0,75,0.00,,,0.00,VWS V14.01,2013-07-11 10:16:00,
2013-07-11 05:18:00,57.9,50.4,29.94,SSW,202,0.0,0.0,76,0.00,,,0.00,VWS V14.01,2013-07-11 10:18:00,
2013-07-11 05:20:00,57.9,50.4,29.94,SSW,202,0.0,0.0,76,0.00,,,0.00,VWS V14.01,2013-07-11 10:20:00,
2013-07-11 05:21:00,57.9,50.4,29.94,SSW,202,0.0,0.0,76,0.00,,,0.00,VWS V14.01,2013-07-11 10:21:00,
2013-07-11 05:22:00,57.9,50.4,29.94,SSW,202,0.0,0.0,76,0.00,,,0.00,VWS V14.01,2013-07-11 10:22:00,
2013-07-11 05:24:00,57.9,50.8,29.94,SSW,202,0.0,0.0,77,0.00,,,0.00,VWS V14.01,2013-07-11 10:24:00,
2013-07-11 05:26:00,57.9,50.4,29.94,SSW,202,0.0,0.0,76,0.00,,,0.00,VWS V14.01,2013-07-11 10:26:00,
2013-07-11 05:28:00,57.9,50.4,29.94,SSW,202,0.0,0.0,76,0.00,,,0.00,VWS V14.01,2013-07-11 10:28:00,
2013-07-11 05:30:00,57.9,50.4,29.94,SSW,202,0.0,0.0,76,0.00,,,0.00,VWS V14.01,2013-07-11 10:30:00,
2013-07-11 05:31:00,57.9,50.4,29.94,SSW,202,0.0,0.0,76,0.00,,,0.00,VWS V14.01,2013-07-11 10:31:00,
2013-07-11 05:32:00,57.9,50.4,29.94,SSW,202,0.0,0.0,76,0.00,,,0.00,VWS V14.01,2013-07-11 10:32:00,
2013-07-11 05:34:00,57.9,50.4,29.94,SSW,202,0.0,0.0,76,0.00,,,0.00,VWS V14.01,2013-07-11 10:34:00,
2013-07-11 05:36:00,57.9,50.4,29.94,SSW,202,0.0,0.0,76,0.00,,,0.00,VWS V14.01,2013-07-11 10:36:00,
2013-07-11 05:38:00,57.7,49.9,29.94,SSW,202,0.0,0.0,75,0.00,,,0.00,VWS V14.01,2013-07-11 10:38:00,
2013-07-11 05:40:00,57.7,50.2,29.94,SSW,202,0.0,0.0,76,0.00,,,0.00,VWS V14.01,2013-07-11 10:40:00,
2013-07-11 05:41:00,57.7,49.9,29.94,SSW,202,0.0,0.0,75,0.00,,,0.00,VWS V14.01,2013-07-11 10:41:00,
2013-07-11 05:42:00,57.6,50.1,29.94,SSW,202,0.0,0.0,76,0.00,,,0.00,VWS V14.01,2013-07-11 10:42:00,
2013-07-11 05:44:00,57.7,50.6,29.91,SSW,202,0.0,0.0,77,0.00,,,0.00,VWS V14.01,2013-07-11 10:44:00,
2013-07-11 05:46:00,57.6,50.4,29.91,SSW,202,0.0,0.0,77,0.00,,,0.00,VWS V14.01,2013-07-11 10:46:00,
2013-07-11 05:48:00,57.6,50.1,29.91,SSW,202,0.0,0.0,76,0.00,,,0.00,VWS V14.01,2013-07-11 10:48:00,
2013-07-11 05:50:00,57.6,50.4,29.91,SSW,202,0.0,0.0,77,0.00,,,0.00,VWS V14.01,2013-07-11 10:50:00,
2013-07-11 05:51:00,57.6,50.1,29.91,SSW,202,0.0,0.0,76,0.00,,,0.00,VWS V14.01,2013-07-11 10:51:00,
2013-07-11 05:52:00,57.7,50.9,29.91,SSW,202,0.0,0.0,78,0.00,,,0.00,VWS V14.01,2013-07-11 10:52:00,
2013-07-11 05:54:00,57.7,51.6,29.91,SSW,202,0.0,0.0,80,0.00,,,0.00,VWS V14.01,2013-07-11 10:54:00,
2013-07-11 05:56:00,57.7,51.6,29.91,South,180,0.0,0.0,80,0.00,,,0.00,VWS V14.01,2013-07-11 10:56:00,
2013-07-11 05:58:00,57.9,51.8,29.94,South,180,0.0,0.0,80,0.00,,,0.00,VWS V14.01,2013-07-11 10:58:00,
2013-07-11 06:00:00,57.9,51.8,29.94,SSW,202,0.0,1.6,80,0.00,,,0.00,VWS V14.01,2013-07-11 11:00:00,
2013-07-11 06:01:00,57.9,51.8,29.94,SSW,202,4.0,4.0,80,0.00,,,0.00,VWS V14.01,2013-07-11 11:01:00,
2013-07-11 06:02:00,58.1,52.0,29.94,SSW,202,0.0,1.1,80,0.00,,,0.00,VWS V14.01,2013-07-11 11:02:00,
2013-07-11 06:04:00,58.1,51.6,29.94,SSW,202,0.0,0.0,79,0.00,,,0.00,VWS V14.01,2013-07-11 11:04:00,
2013-07-11 06:06:00,58.1,51.6,29.94,SSW,202,0.0,0.0,79,0.00,,,0.00,VWS V14.01,2013-07-11 11:06:00,
2013-07-11 06:08:00,58.3,51.8,29.94,SSW,202,0.0,0.0,79,0.00,,,0.00,VWS V14.01,2013-07-11 11:08:00,
2013-07-11 06:10:00,58.3,52.2,29.94,SSW,202,0.0,0.0,80,0.00,,,0.00,VWS V14.01,2013-07-11 11:10:00,
2013-07-11 06:11:00,58.3,52.2,29.94,SSW,202,0.0,0.0,80,0.00,,,0.00,VWS V14.01,2013-07-11 11:11:00,
2013-07-11 06:12:00,58.3,51.8,29.94,SSW,202,0.0,0.0,79,0.00,,,0.00,VWS V14.01,2013-07-11 11:12:00,
2013-07-11 06:14:00,58.3,51.8,29.91,SSW,202,0.0,0.0,79,0.00,,,0.00,VWS V14.01,2013-07-11 11:14:00,
2013-07-11 06:16:00,58.3,51.8,29.91,SSW,202,0.0,0.0,79,0.00,,,0.00,VWS V14.01,2013-07-11 11:16:00,
2013-07-11 06:18:00,58.1,51.6,29.91,SSW,202,0.0,0.0,79,0.00,,,0.00,VWS V14.01,2013-07-11 11:18:00,
2013-07-11 06:20:00,58.3,52.2,29.91,SSW,202,3.4,3.4,80,0.00,,,0.00,VWS V14.01,2013-07-11 11:20:00,
2013-07-11 06:21:00,58.3,51.8,29.91,SSW,202,0.0,0.0,79,0.00,,,0.00,VWS V14.01,2013-07-11 11:21:00,
2013-07-11 06:22:00,58.5,52.7,29.91,SSW,202,0.0,1.1,81,0.00,,,0.00,VWS V14.01,2013-07-11 11:22:00,
2013-07-11 06:24:00,58.6,52.8,29.91,SSW,202,4.0,4.0,81,0.00,,,0.00,VWS V14.01,2013-07-11 11:24:00,
2013-07-11 06:26:00,58.6,53.2,29.91,SSW,202,3.4,3.4,82,0.00,,,0.00,VWS V14.01,2013-07-11 11:26:00,
2013-07-11 06:28:00,58.8,53.0,29.94,SSW,202,0.0,0.0,81,0.00,,,0.00,VWS V14.01,2013-07-11 11:28:00,
2013-07-11 06:30:00,58.8,52.7,29.94,SSW,202,0.0,0.0,80,0.00,,,0.00,VWS V14.01,2013-07-11 11:30:00,
2013-07-11 06:31:00,58.8,52.7,29.94,SSW,202,0.0,0.0,80,0.00,,,0.00,VWS V14.01,2013-07-11 11:31:00,
2013-07-11 06:32:00,59.0,52.8,29.94,SSW,202,0.0,0.0,80,0.00,,,0.00,VWS V14.01,2013-07-11 11:32:00,
2013-07-11 06:34:00,59.2,53.0,29.94,SSW,202,0.0,0.9,80,0.00,,,0.00,VWS V14.01,2013-07-11 11:34:00,
2013-07-11 06:36:00,59.2,53.0,29.94,SSW,202,0.0,0.9,80,0.00,,,0.00,VWS V14.01,2013-07-11 11:36:00,
2013-07-11 06:38:00,59.4,52.8,29.94,SSW,202,4.0,4.0,79,0.00,,,0.00,VWS V14.01,2013-07-11 11:38:00,
2013-07-11 06:40:00,59.5,52.7,29.94,SSW,202,3.4,3.4,78,0.00,,,0.00,VWS V14.01,2013-07-11 11:40:00,
2013-07-11 06:41:00,59.5,52.7,29.94,SSW,202,4.7,4.7,78,0.00,,,0.00,VWS V14.01,2013-07-11 11:41:00,
2013-07-11 06:42:00,59.7,52.2,29.94,SSW,202,4.0,4.0,76,0.00,,,0.00,VWS V14.01,2013-07-11 11:42:00,
2013-07-11 06:44:00,59.9,52.3,29.94,SSW,202,0.0,1.6,76,0.00,,,0.00,VWS V14.01,2013-07-11 11:44:00,
2013-07-11 06:46:00,59.9,52.3,29.94,SSW,202,0.0,1.3,76,0.00,,,0.00,VWS V14.01,2013-07-11 11:46:00,
2013-07-11 06:48:00,60.1,52.1,29.94,South,180,0.0,0.0,75,0.00,,,0.00,VWS V14.01,2013-07-11 11:48:00,
2013-07-11 06:50:00,60.3,52.0,29.94,SSW,202,6.7,6.7,74,0.00,,,0.00,VWS V14.01,2013-07-11 11:50:00,
2013-07-11 06:51:00,60.3,52.0,29.94,SSW,202,4.7,4.7,74,0.00,,,0.00,VWS V14.01,2013-07-11 11:51:00,
2013-07-11 06:52:00,60.4,51.8,29.94,SSW,202,4.7,4.7,73,0.00,,,0.00,VWS V14.01,2013-07-11 11:52:00,
2013-07-11 06:54:00,60.6,51.9,29.94,SSW,202,3.4,3.4,73,0.00,,,0.00,VWS V14.01,2013-07-11 11:54:00,
2013-07-11 06:56:00,60.8,52.1,29.94,SSW,202,3.4,3.4,73,0.00,,,0.00,VWS V14.01,2013-07-11 11:56:00,
2013-07-11 06:58:00,61.0,51.5,29.94,SSW,202,2.7,2.7,71,0.00,,,0.00,VWS V14.01,2013-07-11 11:58:00,
2013-07-11 07:00:00,61.2,51.7,29.94,SSW,202,0.0,0.0,71,0.00,,,0.00,VWS V14.01,2013-07-11 12:00:00,
2013-07-11 07:01:00,61.2,51.7,29.94,SSW,202,0.0,0.9,71,0.00,,,0.00,VWS V14.01,2013-07-11 12:01:00,
2013-07-11 07:02:00,61.3,51.5,29.94,SSW,202,0.0,0.0,70,0.00,,,0.00,VWS V14.01,2013-07-11 12:02:00,
2013-07-11 07:04:00,61.5,51.3,29.94,SSW,202,0.0,0.0,69,0.00,,,0.00,VWS V14.01,2013-07-11 12:04:00,
2013-07-11 07:06:00,61.5,51.3,29.94,SSW,202,0.0,0.0,69,0.00,,,0.00,VWS V14.01,2013-07-11 12:06:00,
2013-07-11 07:08:00,61.7,51.0,29.94,SSW,202,0.0,0.0,68,0.00,,,0.00,VWS V14.01,2013-07-11 12:08:00,
2013-07-11 07:10:00,61.9,50.8,29.94,SSW,202,0.0,0.0,67,0.00,,,0.00,VWS V14.01,2013-07-11 12:10:00,
2013-07-11 07:11:00,61.9,50.8,29.94,SSW,202,0.0,0.0,67,0.00,,,0.00,VWS V14.01,2013-07-11 12:11:00,
2013-07-11 07:12:00,62.1,51.0,29.94,SSW,202,0.0,0.0,67,0.00,,,0.00,VWS V14.01,2013-07-11 12:12:00,
2013-07-11 07:14:00,62.2,50.8,29.94,SSW,202,2.7,2.7,66,0.00,,,0.00,VWS V14.01,2013-07-11 12:14:00,
2013-07-11 07:16:00,62.4,50.9,29.94,SSW,202,0.0,1.6,66,0.00,,,0.00,VWS V14.01,2013-07-11 12:16:00,
2013-07-11 07:18:00,62.6,50.3,29.94,SSW,202,0.0,1.3,64,0.00,,,0.00,VWS V14.01,2013-07-11 12:18:00,
2013-07-11 07:20:00,63.0,50.2,29.94,SW,225,0.0,1.6,63,0.00,,,0.00,VWS V14.01,2013-07-11 12:20:00,
2013-07-11 07:21:00,62.8,50.0,29.94,SSW,202,0.0,1.6,63,0.00,,,0.00,VWS V14.01,2013-07-11 12:21:00,
2013-07-11 07:22:00,63.0,49.8,29.94,SSW,202,0.0,0.0,62,0.00,,,0.00,VWS V14.01,2013-07-11 12:22:00,
2013-07-11 07:24:00,63.1,49.5,29.94,SSW,202,0.0,0.0,61,0.00,,,0.00,VWS V14.01,2013-07-11 12:24:00,
2013-07-11 07:26:00,63.1,49.5,29.94,SSW,202,2.7,2.7,61,0.00,,,0.00,VWS V14.01,2013-07-11 12:26:00,
2013-07-11 07:28:00,63.5,48.9,29.94,SSW,202,6.7,6.7,59,0.00,,,0.00,VWS V14.01,2013-07-11 12:28:00,
2013-07-11 07:30:00,63.7,49.1,29.94,SSW,202,3.4,3.4,59,0.00,,,0.00,VWS V14.01,2013-07-11 12:30:00,
2013-07-11 07:31:00,63.5,48.9,29.94,SSW,202,3.4,3.4,59,0.00,,,0.00,VWS V14.01,2013-07-11 12:31:00,
2013-07-11 07:32:00,63.9,48.8,29.94,SSW,202,3.4,3.4,58,0.00,,,0.00,VWS V14.01,2013-07-11 12:32:00,
2013-07-11 07:34:00,64.0,49.0,29.94,SW,225,0.0,1.1,58,0.00,,,0.00,VWS V14.01,2013-07-11 12:34:00,
2013-07-11 07:36:00,64.0,49.0,29.94,SSW,202,4.7,4.7,58,0.00,,,0.00,VWS V14.01,2013-07-11 12:36:00,
2013-07-11 07:38:00,64.2,48.7,29.94,SSW,202,0.0,1.3,57,0.00,,,0.00,VWS V14.01,2013-07-11 12:38:00,
2013-07-11 07:40:00,64.4,48.4,29.94,SSW,202,3.4,3.4,56,0.00,,,0.00,VWS V14.01,2013-07-11 12:40:00,
2013-07-11 07:41:00,64.4,48.4,29.94,SSW,202,4.7,4.7,56,0.00,,,0.00,VWS V14.01,2013-07-11 12:41:00,
2013-07-11 07:42:00,64.6,48.5,29.94,SSW,202,2.7,2.7,56,0.00,,,0.00,VWS V14.01,2013-07-11 12:42:00,
2013-07-11 07:44:00,64.8,48.2,29.94,SSW,202,2.7,2.7,55,0.00,,,0.00,VWS V14.01,2013-07-11 12:44:00,
2013-07-11 07:46:00,64.8,48.2,29.94,SSW,202,2.7,2.7,55,0.00,,,0.00,VWS V14.01,2013-07-11 12:46:00,
2013-07-11 07:48:00,65.1,48.1,29.94,SSW,202,6.0,6.0,54,0.00,,,0.00,VWS V14.01,2013-07-11 12:48:00,
2013-07-11 07:50:00,65.3,47.8,29.94,South,180,4.7,4.7,53,0.00,,,0.00,VWS V14.01,2013-07-11 12:50:00,
2013-07-11 07:51:00,65.1,48.1,29.94,SSW,202,3.4,3.4,54,0.00,,,0.00,VWS V14.01,2013-07-11 12:51:00,
2013-07-11 07:52:00,65.5,47.9,29.94,South,180,0.0,2.2,53,0.00,,,0.00,VWS V14.01,2013-07-11 12:52:00,
2013-07-11 07:54:00,65.5,47.9,29.94,SSW,202,4.0,4.0,53,0.00,,,0.00,VWS V14.01,2013-07-11 12:54:00,
2013-07-11 07:56:00,65.7,48.1,29.94,South,180,4.0,4.0,53,0.00,,,0.00,VWS V14.01,2013-07-11 12:56:00,
2013-07-11 07:58:00,65.8,47.7,29.94,SSW,202,4.7,4.7,52,0.00,,,0.00,VWS V14.01,2013-07-11 12:58:00,
2013-07-11 08:00:00,66.0,47.9,29.94,SSW,202,3.4,3.4,52,0.00,,,0.00,VWS V14.01,2013-07-11 13:00:00,
2013-07-11 08:01:00,66.0,47.9,29.94,SW,225,4.7,4.7,52,0.00,,,0.00,VWS V14.01,2013-07-11 13:01:00,
2013-07-11 08:02:00,66.2,47.6,29.94,South,180,4.7,4.7,51,0.00,,,0.00,VWS V14.01,2013-07-11 13:02:00,
2013-07-11 08:04:00,66.4,47.7,29.94,SSW,202,0.0,1.6,51,0.00,,,0.00,VWS V14.01,2013-07-11 13:04:00,
2013-07-11 08:06:00,66.6,47.9,29.94,SSW,202,0.0,0.9,51,0.00,,,0.00,VWS V14.01,2013-07-11 13:06:00,
2013-07-11 08:08:00,66.7,48.1,29.94,SSW,202,4.0,4.0,51,0.00,,,0.00,VWS V14.01,2013-07-11 13:08:00,
2013-07-11 08:10:00,66.7,48.1,29.94,SSW,202,2.7,2.7,51,0.00,,,0.00,VWS V14.01,2013-07-11 13:10:00,
2013-07-11 08:11:00,66.7,48.1,29.94,SSW,202,2.7,2.7,51,0.00,,,0.00,VWS V14.01,2013-07-11 13:11:00,
2013-07-11 08:12:00,67.1,47.9,29.94,SSW,202,0.0,0.0,50,0.00,,,0.00,VWS V14.01,2013-07-11 13:12:00,
2013-07-11 08:14:00,67.3,48.0,29.94,SW,225,0.0,2.0,50,0.00,,,0.00,VWS V14.01,2013-07-11 13:14:00,
2013-07-11 08:16:00,67.3,48.0,29.94,SW,225,0.0,1.1,50,0.00,,,0.00,VWS V14.01,2013-07-11 13:16:00,
2013-07-11 08:18:00,67.6,47.8,29.94,SSW,202,0.0,0.0,49,0.00,,,0.00,VWS V14.01,2013-07-11 13:18:00,
2013-07-11 08:20:00,68.0,48.2,29.94,SSW,202,0.0,0.0,49,0.00,,,0.00,VWS V14.01,2013-07-11 13:20:00,
2013-07-11 08:21:00,68.0,48.2,29.94,SSW,202,0.0,0.0,49,0.00,,,0.00,VWS V14.01,2013-07-11 13:21:00,
2013-07-11 08:22:00,68.2,47.8,29.94,SSW,202,0.0,1.6,48,0.00,,,0.00,VWS V14.01,2013-07-11 13:22:00,
2013-07-11 08:24:00,68.5,48.1,29.94,SW,225,3.4,3.4,48,0.00,,,0.00,VWS V14.01,2013-07-11 13:24:00,
2013-07-11 08:26:00,68.5,48.1,29.94,South,180,0.0,1.1,48,0.00,,,0.00,VWS V14.01,2013-07-11 13:26:00,
2013-07-11 08:28:00,69.3,47.0,29.94,SSW,202,0.0,2.2,45,0.00,,,0.00,VWS V14.01,2013-07-11 13:28:00,
2013-07-11 08:30:00,69.8,47.5,29.94,SSW,202,0.0,0.0,45,0.00,,,0.00,VWS V14.01,2013-07-11 13:30:00,
2013-07-11 08:31:00,69.8,47.5,29.94,SSW,202,0.0,0.0,45,0.00,,,0.00,VWS V14.01,2013-07-11 13:31:00,
2013-07-11 08:32:00,70.3,47.4,29.94,SW,225,2.7,2.7,44,0.00,,,0.00,VWS V14.01,2013-07-11 13:32:00,
2013-07-11 08:34:00,70.9,47.9,29.94,SW,225,0.0,1.3,44,0.00,,,0.00,VWS V14.01,2013-07-11 13:34:00,
2013-07-11 08:36:00,71.2,47.6,29.94,SW,225,0.0,0.0,43,0.00,,,0.00,VWS V14.01,2013-07-11 13:36:00,
2013-07-11 08:38:00,72.0,47.6,29.94,SW,225,6.0,6.0,42,0.00,,,0.00,VWS V14.01,2013-07-11 13:38:00,
2013-07-11 08:40:00,72.1,46.5,29.94,SSW,202,0.0,2.0,40,0.00,,,0.00,VWS V14.01,2013-07-11 13:40:00,
2013-07-11 08:41:00,72.3,46.7,29.94,South,180,0.0,2.0,40,0.00,,,0.00,VWS V14.01,2013-07-11 13:41:00,
2013-07-11 08:42:00,72.5,45.5,29.94,South,180,4.0,4.0,38,0.00,,,0.00,VWS V14.01,2013-07-11 13:42:00,
2013-07-11 08:44:00,72.9,44.4,29.94,SSE,158,10.7,10.7,36,0.00,,,0.00,VWS V14.01,2013-07-11 13:44:00,
2013-07-11 08:46:00,73.0,44.5,29.94,South,180,8.7,8.7,36,0.00,,,0.00,VWS V14.01,2013-07-11 13:46:00,
2013-07-11 08:48:00,73.2,43.2,29.94,SSW,202,4.0,4.0,34,0.00,,,0.00,VWS V14.01,2013-07-11 13:48:00,
2013-07-11 08:50:00,73.4,43.3,29.94,SW,225,0.0,2.0,34,0.00,,,0.00,VWS V14.01,2013-07-11 13:50:00,
2013-07-11 08:51:00,73.4,43.3,29.94,South,180,0.0,1.1,34,0.00,,,0.00,VWS V14.01,2013-07-11 13:51:00,
2013-07-11 08:52:00,73.6,44.3,29.94,SSW,202,2.7,2.7,35,0.00,,,0.00,VWS V14.01,2013-07-11 13:52:00,
2013-07-11 08:54:00,73.8,42.9,29.94,SW,225,8.1,8.1,33,0.00,,,0.00,VWS V14.01,2013-07-11 13:54:00,
2013-07-11 08:56:00,73.9,43.0,29.94,South,180,0.0,2.7,33,0.00,,,0.00,VWS V14.01,2013-07-11 13:56:00,
2013-07-11 08:58:00,74.3,43.4,29.91,SSE,158,6.0,6.0,33,0.00,,,0.00,VWS V14.01,2013-07-11 13:58:00,
2013-07-11 09:00:00,74.3,43.4,29.91,SE,135,0.0,1.3,33,0.00,,,0.00,VWS V14.01,2013-07-11 14:00:00,
2013-07-11 09:01:00,74.3,43.4,29.91,SE,135,0.0,1.3,33,0.00,,,0.00,VWS V14.01,2013-07-11 14:01:00,
2013-07-11 09:02:00,74.5,43.5,29.91,SW,225,0.0,1.6,33,0.00,,,0.00,VWS V14.01,2013-07-11 14:02:00,
2013-07-11 09:04:00,74.7,43.7,29.91,SSE,158,0.0,0.0,33,0.00,,,0.00,VWS V14.01,2013-07-11 14:04:00,
2013-07-11 09:06:00,75.0,44.0,29.91,NE,45,0.0,0.0,33,0.00,,,0.00,VWS V14.01,2013-07-11 14:06:00,
2013-07-11 09:08:00,75.4,44.3,29.91,SSW,202,0.0,1.6,33,0.00,,,0.00,VWS V14.01,2013-07-11 14:08:00,
2013-07-11 09:10:00,75.4,43.5,29.91,WNW,292,4.7,4.7,32,0.00,,,0.00,VWS V14.01,2013-07-11 14:10:00,
2013-07-11 09:11:00,75.4,43.5,29.91,SSW,202,3.4,3.4,32,0.00,,,0.00,VWS V14.01,2013-07-11 14:11:00,
2013-07-11 09:12:00,75.2,43.3,29.91,SW,225,0.0,2.7,32,0.00,,,0.00,VWS V14.01,2013-07-11 14:12:00,
2013-07-11 09:14:00,75.4,43.5,29.94,WSW,248,0.0,0.0,32,0.00,,,0.00,VWS V14.01,2013-07-11 14:14:00,
2013-07-11 09:16:00,75.4,42.7,29.94,NNW,338,2.7,2.7,31,0.00,,,0.00,VWS V14.01,2013-07-11 14:16:00,
2013-07-11 09:18:00,75.4,43.5,29.94,SE,135,4.7,4.7,32,0.00,,,0.00,VWS V14.01,2013-07-11 14:18:00,
2013-07-11 09:20:00,75.2,42.5,29.94,South,180,0.0,1.1,31,0.00,,,0.00,VWS V14.01,2013-07-11 14:20:00,
2013-07-11 09:21:00,75.4,42.7,29.94,SW,225,0.0,0.0,31,0.00,,,0.00,VWS V14.01,2013-07-11 14:21:00,
2013-07-11 09:22:00,75.6,42.8,29.94,WSW,248,4.0,4.0,31,0.00,,,0.00,VWS V14.01,2013-07-11 14:22:00,
2013-07-11 09:24:00,75.6,42.8,29.94,South,180,0.0,1.3,31,0.00,,,0.00,VWS V14.01,2013-07-11 14:24:00,
2013-07-11 09:26:00,75.7,43.0,29.94,South,180,0.0,2.0,31,0.00,,,0.00,VWS V14.01,2013-07-11 14:26:00,
2013-07-11 09:28:00,75.9,43.2,29.94,SSE,158,2.7,2.7,31,0.00,,,0.00,VWS V14.01,2013-07-11 14:28:00,
2013-07-11 09:30:00,76.3,43.5,29.94,SSE,158,3.4,3.4,31,0.00,,,0.00,VWS V14.01,2013-07-11 14:30:00,
2013-07-11 09:31:00,76.3,43.5,29.94,SSW,202,0.0,1.6,31,0.00,,,0.00,VWS V14.01,2013-07-11 14:31:00,
2013-07-11 09:32:00,76.6,43.8,29.94,ESE,112,4.0,4.0,31,0.00,,,0.00,VWS V14.01,2013-07-11 14:32:00,
2013-07-11 09:34:00,77.0,44.1,29.94,NNE,22,0.0,1.3,31,0.00,,,0.00,VWS V14.01,2013-07-11 14:34:00,
2013-07-11 09:36:00,77.4,43.5,29.94,South,180,0.0,1.1,30,0.00,,,0.00,VWS V14.01,2013-07-11 14:36:00,
2013-07-11 09:38:00,77.4,42.7,29.94,NW,315,4.0,4.0,29,0.00,,,0.00,VWS V14.01,2013-07-11 14:38:00,
2013-07-11 09:40:00,77.7,43.0,29.94,South,180,3.4,3.4,29,0.00,,,0.00,VWS V14.01,2013-07-11 14:40:00,
2013-07-11 09:41:00,77.9,42.2,29.94,WSW,248,6.7,6.7,28,0.00,,,0.00,VWS V14.01,2013-07-11 14:41:00,
2013-07-11 09:42:00,77.9,42.2,29.94,SSW,202,7.4,7.4,28,0.00,,,0.00,VWS V14.01,2013-07-11 14:42:00,
2013-07-11 09:44:00,77.7,41.1,29.94,SSW,202,4.7,4.7,27,0.00,,,0.00,VWS V14.01,2013-07-11 14:44:00,
2013-07-11 09:46:00,77.9,40.3,29.94,SW,225,10.7,10.7,26,0.00,,,0.00,VWS V14.01,2013-07-11 14:46:00,
2013-07-11 09:48:00,77.7,40.1,29.94,South,180,4.7,4.7,26,0.00,,,0.00,VWS V14.01,2013-07-11 14:48:00,
2013-07-11 09:50:00,77.7,41.1,29.94,SSW,202,3.4,3.4,27,0.00,,,0.00,VWS V14.01,2013-07-11 14:50:00,
2013-07-11 09:52:00,78.1,40.4,29.94,WSW,248,12.8,12.8,26,0.00,,,0.00,VWS V14.01,2013-07-11 14:52:00,
2013-07-11 09:54:00,78.3,40.6,29.94,West,270,7.4,7.4,26,0.00,,,0.00,VWS V14.01,2013-07-11 14:54:00,
2013-07-11 09:56:00,78.3,40.6,29.94,SSE,158,8.7,8.7,26,0.00,,,0.00,VWS V14.01,2013-07-11 14:56:00,
2013-07-11 09:57:00,78.3,40.6,29.94,SSE,158,8.7,8.7,26,0.00,,,0.00,VWS V14.01,2013-07-11 14:57:00,
2013-07-11 09:58:00,78.8,41.0,29.94,SSW,202,7.4,7.4,26,0.00,,,0.00,VWS V14.01,2013-07-11 14:58:00,
2013-07-11 10:00:00,79.0,39.2,29.94,SSW,202,6.7,6.7,24,0.00,,,0.00,VWS V14.01,2013-07-11 15:00:00,
2013-07-11 10:02:00,79.0,39.2,29.94,SSW,202,8.1,8.1,24,0.00,,,0.00,VWS V14.01,2013-07-11 15:02:00,
2013-07-11 10:04:00,79.0,38.1,29.94,SE,135,7.4,7.4,23,0.00,,,0.00,VWS V14.01,2013-07-11 15:04:00,
2013-07-11 10:06:00,79.0,38.1,29.94,South,180,6.7,6.7,23,0.00,,,0.00,VWS V14.01,2013-07-11 15:06:00,
2013-07-11 10:07:00,79.0,38.1,29.94,South,180,6.7,6.7,23,0.00,,,0.00,VWS V14.01,2013-07-11 15:07:00,
2013-07-11 10:08:00,79.0,38.1,29.94,South,180,6.0,6.0,23,0.00,,,0.00,VWS V14.01,2013-07-11 15:08:00,
2013-07-11 10:10:00,79.2,38.2,29.94,SSW,202,3.4,4.3,23,0.00,,,0.00,VWS V14.01,2013-07-11 15:10:00,
2013-07-11 10:12:00,79.3,38.4,29.94,ESE,112,12.8,12.8,23,0.00,,,0.00,VWS V14.01,2013-07-11 15:12:00,
2013-07-11 10:14:00,80.1,39.0,29.94,SE,135,3.4,3.4,23,0.00,,,0.00,VWS V14.01,2013-07-11 15:14:00,
2013-07-11 10:16:00,80.4,39.3,29.94,South,180,8.1,8.1,23,0.00,,,0.00,VWS V14.01,2013-07-11 15:16:00,
2013-07-11 10:17:00,80.4,39.3,29.94,SSW,202,4.7,4.7,23,0.00,,,0.00,VWS V14.01,2013-07-11 15:17:00,
2013-07-11 10:18:00,80.4,39.3,29.94,SW,225,0.0,2.5,23,0.00,,,0.00,VWS V14.01,2013-07-11 15:18:00,
2013-07-11 10:20:00,80.8,38.4,29.94,West,270,4.0,4.0,22,0.00,,,0.00,VWS V14.01,2013-07-11 15:20:00,
2013-07-11 10:22:00,81.5,39.0,29.94,SE,135,7.4,7.4,22,0.00,,,0.00,VWS V14.01,2013-07-11 15:22:00,
2013-07-11 10:23:00,81.1,38.7,29.94,SE,135,7.4,7.4,22,0.00,,,0.00,VWS V14.01,2013-07-11 15:23:00,
2013-07-11 10:24:00,81.9,39.3,29.94,SW,225,4.7,4.7,22,0.00,,,0.00,VWS V14.01,2013-07-11 15:24:00,
2013-07-11 10:26:00,82.0,39.5,29.94,NW,315,4.7,4.7,22,0.00,,,0.00,VWS V14.01,2013-07-11 15:26:00,
2013-07-11 10:28:00,82.0,39.5,29.94,SSE,158,8.1,8.1,22,0.00,,,0.00,VWS V14.01,2013-07-11 15:28:00,
2013-07-11 10:30:00,82.4,38.6,29.94,South,180,4.7,4.7,21,0.00,,,0.00,VWS V14.01,2013-07-11 15:30:00,
2013-07-11 10:32:00,82.4,38.6,29.94,SSW,202,6.0,6.0,21,0.00,,,0.00,VWS V14.01,2013-07-11 15:32:00,
2013-07-11 10:33:00,82.4,38.6,29.94,SSW,202,6.0,6.0,21,0.00,,,0.00,VWS V14.01,2013-07-11 15:33:00,
2013-07-11 10:34:00,82.4,38.6,29.94,SSW,202,4.7,4.7,21,0.00,,,0.00,VWS V14.01,2013-07-11 15:34:00,
2013-07-11 10:36:00,82.2,38.4,29.94,NNW,338,11.4,11.4,21,0.00,,,0.00,VWS V14.01,2013-07-11 15:36:00,
2013-07-11 10:38:00,82.4,38.6,29.94,SSW,202,0.0,3.8,21,0.00,,,0.00,VWS V14.01,2013-07-11 15:38:00,
2013-07-11 10:40:00,82.0,38.3,29.94,SSW,202,12.8,12.8,21,0.00,,,0.00,VWS V14.01,2013-07-11 15:40:00,
2013-07-11 10:42:00,82.2,38.4,29.94,WSW,248,9.4,9.4,21,0.00,,,0.00,VWS V14.01,2013-07-11 15:42:00,
2013-07-11 10:43:00,82.2,38.4,29.94,WSW,248,9.4,9.4,21,0.00,,,0.00,VWS V14.01,2013-07-11 15:43:00,
2013-07-11 10:44:00,81.7,36.8,29.94,South,180,16.8,16.8,20,0.00,,,0.00,VWS V14.01,2013-07-11 15:44:00,
2013-07-11 10:46:00,81.7,38.0,29.94,SSW,202,16.1,16.1,21,0.00,,,0.00,VWS V14.01,2013-07-11 15:46:00,
2013-07-11 10:48:00,81.5,37.8,29.94,SW,225,8.1,8.1,21,0.00,,,0.00,VWS V14.01,2013-07-11 15:48:00,
2013-07-11 10:50:00,81.9,38.1,29.94,South,180,4.7,4.7,21,0.00,,,0.00,VWS V14.01,2013-07-11 15:50:00,
2013-07-11 10:52:00,82.0,38.3,29.94,SSW,202,12.8,12.8,21,0.00,,,0.00,VWS V14.01,2013-07-11 15:52:00,
2013-07-11 10:53:00,82.0,38.3,29.94,SSW,202,12.8,12.8,21,0.00,,,0.00,VWS V14.01,2013-07-11 15:53:00,
2013-07-11 10:54:00,82.2,38.4,29.94,WSW,248,4.7,4.7,21,0.00,,,0.00,VWS V14.01,2013-07-11 15:54:00,
2013-07-11 10:56:00,82.6,38.7,29.94,West,270,6.0,6.0,21,0.00,,,0.00,VWS V14.01,2013-07-11 15:56:00,
2013-07-11 10:58:00,82.8,38.9,29.94,SSE,158,2.7,4.3,21,0.00,,,0.00,VWS V14.01,2013-07-11 15:58:00,
2013-07-11 11:00:00,83.3,38.1,29.97,SW,225,17.5,17.5,20,0.00,,,0.00,VWS V14.01,2013-07-11 16:00:00,
2013-07-11 11:02:00,82.8,37.6,29.97,SSE,158,12.1,12.1,20,0.00,,,0.00,VWS V14.01,2013-07-11 16:02:00,
2013-07-11 11:03:00,82.8,37.6,29.97,South,180,16.1,16.1,20,0.00,,,0.00,VWS V14.01,2013-07-11 16:03:00,
2013-07-11 11:04:00,82.4,37.3,29.97,WSW,248,17.5,17.5,20,0.00,,,0.00,VWS V14.01,2013-07-11 16:04:00,
2013-07-11 11:06:00,82.2,37.2,29.97,SSE,158,18.8,18.8,20,0.00,,,0.00,VWS V14.01,2013-07-11 16:06:00,
2013-07-11 11:08:00,82.2,37.2,29.97,South,180,8.7,8.7,20,0.00,,,0.00,VWS V14.01,2013-07-11 16:08:00,
2013-07-11 11:10:00,82.8,37.6,29.97,South,180,3.4,3.4,20,0.00,,,0.00,VWS V14.01,2013-07-11 16:10:00,
2013-07-11 11:12:00,82.6,37.5,29.97,NNE,22,6.7,6.7,20,0.00,,,0.00,VWS V14.01,2013-07-11 16:12:00,
2013-07-11 11:13:00,82.8,37.6,29.91,NNE,22,6.7,6.7,20,0.00,,,0.00,VWS V14.01,2013-07-11 16:13:00,
2013-07-11 11:14:00,83.1,37.9,29.91,East,90,6.0,6.0,20,0.00,,,0.00,VWS V14.01,2013-07-11 16:14:00,
2013-07-11 11:16:00,82.9,37.8,29.91,SSW,202,8.1,8.1,20,0.00,,,0.00,VWS V14.01,2013-07-11 16:16:00,
2013-07-11 11:18:00,82.9,37.8,29.91,SW,225,12.8,12.8,20,0.00,,,0.00,VWS V14.01,2013-07-11 16:18:00,
2013-07-11 11:20:00,83.1,37.9,29.91,SSW,202,12.1,12.1,20,0.00,,,0.00,VWS V14.01,2013-07-11 16:20:00,
2013-07-11 11:22:00,83.5,38.2,29.91,SW,225,9.4,9.4,20,0.00,,,0.00,VWS V14.01,2013-07-11 16:22:00,
2013-07-11 11:23:00,83.5,38.2,29.91,South,180,6.0,6.0,20,0.00,,,0.00,VWS V14.01,2013-07-11 16:23:00,
2013-07-11 11:24:00,83.8,38.5,29.91,NNE,22,4.7,4.7,20,0.00,,,0.00,VWS V14.01,2013-07-11 16:24:00,
2013-07-11 11:26:00,83.8,37.2,29.91,NNE,22,6.0,6.0,19,0.00,,,0.00,VWS V14.01,2013-07-11 16:26:00,
2013-07-11 11:28:00,84.6,37.8,29.91,WSW,248,7.4,7.4,19,0.00,,,0.00,VWS V14.01,2013-07-11 16:28:00,
2013-07-11 11:30:00,84.6,37.8,29.91,NW,315,6.0,6.0,19,0.00,,,0.00,VWS V14.01,2013-07-11 16:30:00,
2013-07-11 11:32:00,84.6,37.8,29.91,South,180,6.0,6.0,19,0.00,,,0.00,VWS V14.01,2013-07-11 16:32:00,
2013-07-11 11:34:00,85.1,38.2,29.91,North,0,7.4,7.4,19,0.00,,,0.00,VWS V14.01,2013-07-11 16:34:00,
2013-07-11 11:36:00,85.3,38.4,29.91,NE,45,4.7,4.7,19,0.00,,,0.00,VWS V14.01,2013-07-11 16:36:00,
2013-07-11 11:38:00,85.3,38.4,29.91,SSW,202,2.7,6.0,19,0.00,,,0.00,VWS V14.01,2013-07-11 16:38:00,
2013-07-11 11:39:00,85.3,38.4,29.91,South,180,6.7,6.7,19,0.00,,,0.00,VWS V14.01,2013-07-11 16:39:00,
2013-07-11 11:40:00,85.5,38.5,29.91,South,180,0.0,1.1,19,0.00,,,0.00,VWS V14.01,2013-07-11 16:40:00,
2013-07-11 11:42:00,85.6,38.7,29.91,South,180,4.0,4.0,19,0.00,,,0.00,VWS V14.01,2013-07-11 16:42:00,
2013-07-11 11:44:00,85.6,38.7,29.91,SSW,202,8.7,8.7,19,0.00,,,0.00,VWS V14.01,2013-07-11 16:44:00,
2013-07-11 11:46:00,85.5,38.5,29.91,South,180,7.4,7.4,19,0.00,,,0.00,VWS V14.01,2013-07-11 16:46:00,
2013-07-11 11:48:00,85.3,38.4,29.91,SSW,202,7.4,7.4,19,0.00,,,0.00,VWS V14.01,2013-07-11 16:48:00,
2013-07-11 11:49:00,85.3,38.4,29.91,SSW,202,7.4,7.4,19,0.00,,,0.00,VWS V14.01,2013-07-11 16:49:00,
2013-07-11 11:50:00,84.9,38.1,29.91,SSW,202,4.0,4.0,19,0.00,,,0.00,VWS V14.01,2013-07-11 16:50:00,
2013-07-11 11:52:00,85.1,38.2,29.91,NNE,22,6.7,6.7,19,0.00,,,0.00,VWS V14.01,2013-07-11 16:52:00,
2013-07-11 11:54:00,85.1,38.2,29.91,NNW,338,8.7,8.7,19,0.00,,,0.00,VWS V14.01,2013-07-11 16:54:00,
2013-07-11 11:56:00,84.6,37.8,29.91,SSW,202,10.1,10.1,19,0.00,,,0.00,VWS V14.01,2013-07-11 16:56:00,
2013-07-11 11:58:00,84.4,37.7,29.91,SE,135,8.1,8.1,19,0.00,,,0.00,VWS V14.01,2013-07-11 16:58:00,
2013-07-11 11:59:00,84.4,37.7,29.91,SSE,158,12.1,12.1,19,0.00,,,0.00,VWS V14.01,2013-07-11 16:59:00,
2013-07-11 12:00:00,84.6,37.8,29.91,South,180,10.1,10.1,19,0.00,,,0.00,VWS V14.01,2013-07-11 17:00:00,
2013-07-11 12:02:00,84.2,37.5,29.91,SW,225,7.4,7.4,19,0.00,,,0.00,VWS V14.01,2013-07-11 17:02:00,
2013-07-11 12:04:00,84.2,37.5,29.91,SSW,202,7.4,7.4,19,0.00,,,0.00,VWS V14.01,2013-07-11 17:04:00,
2013-07-11 12:06:00,84.4,37.7,29.91,South,180,4.7,4.7,19,0.00,,,0.00,VWS V14.01,2013-07-11 17:06:00,
2013-07-11 12:08:00,84.7,38.0,29.91,North,0,7.4,7.4,19,0.00,,,0.00,VWS V14.01,2013-07-11 17:08:00,
2013-07-11 12:09:00,84.7,38.0,29.91,South,180,7.4,7.4,19,0.00,,,0.00,VWS V14.01,2013-07-11 17:09:00,
2013-07-11 12:10:00,85.1,38.2,29.91,SW,225,4.0,4.0,19,0.00,,,0.00,VWS V14.01,2013-07-11 17:10:00,
2013-07-11 12:12:00,85.5,38.5,29.91,SSW,202,4.0,4.0,19,0.00,,,0.00,VWS V14.01,2013-07-11 17:12:00,
2013-07-11 12:14:00,85.6,38.7,29.91,ENE,68,0.0,3.1,19,0.00,,,0.00,VWS V14.01,2013-07-11 17:14:00,
2013-07-11 12:16:00,86.4,39.3,29.91,SSW,202,0.0,3.1,19,0.00,,,0.00,VWS V14.01,2013-07-11 17:16:00,
2013-07-11 12:18:00,86.2,39.1,29.91,SSW,202,8.1,8.1,19,0.00,,,0.00,VWS V14.01,2013-07-11 17:18:00,
2013-07-11 12:19:00,86.2,39.1,29.91,SSW,202,8.1,8.1,19,0.00,,,0.00,VWS V14.01,2013-07-11 17:19:00,
2013-07-11 12:20:00,85.8,38.8,29.91,West,270,6.0,6.0,19,0.00,,,0.00,VWS V14.01,2013-07-11 17:20:00,
2013-07-11 12:22:00,85.6,38.7,29.91,South,180,6.0,6.0,19,0.00,,,0.00,VWS V14.01,2013-07-11 17:22:00,
2013-07-11 12:24:00,85.6,38.7,29.91,North,0,6.0,6.0,19,0.00,,,0.00,VWS V14.01,2013-07-11 17:24:00,
2013-07-11 12:26:00,86.0,37.6,29.91,SSE,158,7.4,7.4,18,0.00,,,0.00,VWS V14.01,2013-07-11 17:26:00,
2013-07-11 12:28:00,86.0,37.6,29.91,ESE,112,6.0,6.0,18,0.00,,,0.00,VWS V14.01,2013-07-11 17:28:00,
2013-07-11 12:29:00,86.0,37.6,29.91,ESE,112,6.0,6.0,18,0.00,,,0.00,VWS V14.01,2013-07-11 17:29:00,
2013-07-11 12:30:00,84.7,36.6,29.91,SSE,158,10.7,10.7,18,0.00,,,0.00,VWS V14.01,2013-07-11 17:30:00,
2013-07-11 12:32:00,85.1,38.2,29.91,SSW,202,4.0,4.0,19,0.00,,,0.00,VWS V14.01,2013-07-11 17:32:00,
2013-07-11 12:34:00,85.1,38.2,29.91,SW,225,10.7,10.7,19,0.00,,,0.00,VWS V14.01,2013-07-11 17:34:00,
2013-07-11 12:36:00,85.3,38.4,29.91,ENE,68,8.1,8.1,19,0.00,,,0.00,VWS V14.01,2013-07-11 17:36:00,
2013-07-11 12:38:00,85.5,38.5,29.91,SE,135,11.4,11.4,19,0.00,,,0.00,VWS V14.01,2013-07-11 17:38:00,
2013-07-11 12:39:00,85.5,38.5,29.91,WSW,248,6.0,6.0,19,0.00,,,0.00,VWS V14.01,2013-07-11 17:39:00,
2013-07-11 12:40:00,85.3,37.0,29.91,SSE,158,10.1,10.1,18,0.00,,,0.00,VWS V14.01,2013-07-11 17:40:00,
2013-07-11 12:42:00,85.1,38.2,29.91,South,180,8.7,8.7,19,0.00,,,0.00,VWS V14.01,2013-07-11 17:42:00,
2013-07-11 12:44:00,84.9,36.7,29.91,SSE,158,7.4,9.8,18,0.00,,,0.00,VWS V14.01,2013-07-11 17:44:00,
2013-07-11 12:45:00,84.9,36.7,29.91,SSW,202,10.1,10.1,18,0.00,,,0.00,VWS V14.01,2013-07-11 17:45:00,
2013-07-11 12:46:00,85.3,38.4,29.91,NE,45,6.7,6.7,19,0.00,,,0.00,VWS V14.01,2013-07-11 17:46:00,
2013-07-11 12:48:00,85.5,38.5,29.91,South,180,7.4,7.4,19,0.00,,,0.00,VWS V14.01,2013-07-11 17:48:00,
2013-07-11 12:50:00,85.3,38.4,29.91,SSW,202,6.7,6.7,19,0.00,,,0.00,VWS V14.01,2013-07-11 17:50:00,
2013-07-11 12:52:00,85.1,38.2,29.91,South,180,4.7,6.0,19,0.00,,,0.00,VWS V14.01,2013-07-11 17:52:00,
2013-07-11 12:54:00,84.6,36.4,29.91,SSW,202,23.5,23.5,18,0.00,,,0.00,VWS V14.01,2013-07-11 17:54:00,
2013-07-11 12:55:00,84.6,36.4,29.91,South,180,18.1,18.1,18,0.00,,,0.00,VWS V14.01,2013-07-11 17:55:00,
2013-07-11 12:56:00,84.6,37.8,29.91,ESE,112,7.4,7.4,19,0.00,,,0.00,VWS V14.01,2013-07-11 17:56:00,
2013-07-11 12:58:00,85.1,38.2,29.91,SSW,202,4.0,4.0,19,0.00,,,0.00,VWS V14.01,2013-07-11 17:58:00,
2013-07-11 13:00:00,85.5,38.5,29.91,WSW,248,0.0,2.0,19,0.00,,,0.00,VWS V14.01,2013-07-11 18:00:00,
2013-07-11 13:02:00,85.5,38.5,29.91,SW,225,12.8,12.8,19,0.00,,,0.00,VWS V14.01,2013-07-11 18:02:00,
2013-07-11 13:04:00,85.5,38.5,29.91,SW,225,2.7,3.1,19,0.00,,,0.00,VWS V14.01,2013-07-11 18:04:00,
2013-07-11 13:05:00,85.5,38.5,29.91,North,0,2.7,3.1,19,0.00,,,0.00,VWS V14.01,2013-07-11 18:05:00,
2013-07-11 13:06:00,85.5,38.5,29.91,NW,315,9.4,9.4,19,0.00,,,0.00,VWS V14.01,2013-07-11 18:06:00,
2013-07-11 13:08:00,85.8,38.8,29.91,WSW,248,8.1,8.1,19,0.00,,,0.00,VWS V14.01,2013-07-11 18:08:00,
2013-07-11 13:10:00,86.2,37.8,29.91,SSE,158,9.4,9.4,18,0.00,,,0.00,VWS V14.01,2013-07-11 18:10:00,
2013-07-11 13:12:00,86.0,37.6,29.91,South,180,6.7,6.7,18,0.00,,,0.00,VWS V14.01,2013-07-11 18:12:00,
2013-07-11 13:14:00,86.4,37.9,29.88,West,270,8.7,8.7,18,0.00,,,0.00,VWS V14.01,2013-07-11 18:14:00,
2013-07-11 13:15:00,86.4,37.9,29.88,West,270,8.7,8.7,18,0.00,,,0.00,VWS V14.01,2013-07-11 18:15:00,
2013-07-11 13:16:00,86.4,37.9,29.88,NW,315,7.4,7.4,18,0.00,,,0.00,VWS V14.01,2013-07-11 18:16:00,
2013-07-11 13:18:00,86.5,38.0,29.88,SSE,158,6.7,6.7,18,0.00,,,0.00,VWS V14.01,2013-07-11 18:18:00,
2013-07-11 13:20:00,86.5,38.0,29.88,WSW,248,6.0,6.0,18,0.00,,,0.00,VWS V14.01,2013-07-11 18:20:00,
2013-07-11 13:22:00,86.7,38.2,29.88,ENE,68,9.4,9.4,18,0.00,,,0.00,VWS V14.01,2013-07-11 18:22:00,
2013-07-11 13:24:00,86.5,38.0,29.88,South,180,14.1,14.1,18,0.00,,,0.00,VWS V14.01,2013-07-11 18:24:00,
2013-07-11 13:25:00,86.5,38.0,29.88,South,180,14.1,14.1,18,0.00,,,0.00,VWS V14.01,2013-07-11 18:25:00,
2013-07-11 13:26:00,86.0,37.6,29.88,SE,135,14.1,14.1,18,0.00,,,0.00,VWS V14.01,2013-07-11 18:26:00,
2013-07-11 13:28:00,86.0,37.6,29.85,SW,225,21.5,21.5,18,0.00,,,0.00,VWS V14.01,2013-07-11 18:28:00,
2013-07-11 13:30:00,86.0,37.6,29.85,SSE,158,9.4,9.4,18,0.00,,,0.00,VWS V14.01,2013-07-11 18:30:00,
2013-07-11 13:32:00,85.8,37.5,29.85,SSW,202,6.0,6.0,18,0.00,,,0.00,VWS V14.01,2013-07-11 18:32:00,
2013-07-11 13:34:00,86.0,37.6,29.85,SW,225,4.7,4.7,18,0.00,,,0.00,VWS V14.01,2013-07-11 18:34:00,
2013-07-11 13:35:00,86.0,37.6,29.85,SW,225,4.7,4.7,18,0.00,,,0.00,VWS V14.01,2013-07-11 18:35:00,
2013-07-11 13:36:00,85.6,37.3,29.85,SW,225,4.7,4.7,18,0.00,,,0.00,VWS V14.01,2013-07-11 18:36:00,
2013-07-11 13:38:00,85.6,37.3,29.85,SW,225,4.7,4.7,18,0.00,,,0.00,VWS V14.01,2013-07-11 18:38:00,
2013-07-11 13:40:00,85.6,37.3,29.85,SW,225,4.7,4.7,18,0.00,,,0.00,VWS V14.01,2013-07-11 18:40:00,
2013-07-11 13:42:00,86.4,37.9,29.85,SSW,202,3.4,3.4,18,0.00,,,0.00,VWS V14.01,2013-07-11 18:42:00,
2013-07-11 13:44:00,87.1,38.5,29.88,SSW,202,3.4,3.4,18,0.00,,,0.00,VWS V14.01,2013-07-11 18:44:00,
2013-07-11 13:45:00,87.1,38.5,29.88,SSW,202,3.4,3.4,18,0.00,,,0.00,VWS V14.01,2013-07-11 18:45:00,
2013-07-11 13:46:00,86.7,38.2,29.88,SSW,202,3.4,3.4,18,0.00,,,0.00,VWS V14.01,2013-07-11 18:46:00,
2013-07-11 13:48:00,86.4,37.9,29.88,SSW,202,3.4,3.4,18,0.00,,,0.00,VWS V14.01,2013-07-11 18:48:00,
2013-07-11 13:50:00,86.5,38.0,29.88,SSW,202,3.4,3.4,18,0.00,,,0.00,VWS V14.01,2013-07-11 18:50:00,
2013-07-11 13:52:00,86.7,38.2,29.88,SSW,202,3.4,3.4,18,0.00,,,0.00,VWS V14.01,2013-07-11 18:52:00,
2013-07-11 13:54:00,87.3,38.6,29.88,SSW,202,2.7,2.7,18,0.00,,,0.00,VWS V14.01,2013-07-11 18:54:00,
2013-07-11 13:55:00,87.3,38.6,29.88,SSW,202,2.7,2.7,18,0.00,,,0.00,VWS V14.01,2013-07-11 18:55:00,
2013-07-11 13:56:00,87.4,38.8,29.88,South,180,10.7,10.7,18,0.00,,,0.00,VWS V14.01,2013-07-11 18:56:00,
2013-07-11 13:58:00,87.4,38.8,29.85,SW,225,4.0,5.6,18,0.00,,,0.00,VWS V14.01,2013-07-11 18:58:00,
2013-07-11 14:00:00,87.8,39.1,29.85,SE,135,10.7,10.7,18,0.00,,,0.00,VWS V14.01,2013-07-11 19:00:00,
2013-07-11 14:02:00,87.4,38.8,29.85,SW,225,16.8,16.8,18,0.00,,,0.00,VWS V14.01,2013-07-11 19:02:00,
2013-07-11 14:04:00,87.4,38.8,29.85,WSW,248,9.4,9.4,18,0.00,,,0.00,VWS V14.01,2013-07-11 19:04:00,
2013-07-11 14:05:00,87.4,38.8,29.85,WSW,248,9.4,9.4,18,0.00,,,0.00,VWS V14.01,2013-07-11 19:05:00,
2013-07-11 14:06:00,87.6,38.9,29.85,SE,135,4.0,4.0,18,0.00,,,0.00,VWS V14.01,2013-07-11 19:06:00,
2013-07-11 14:08:00,87.1,38.5,29.85,East,90,11.4,11.4,18,0.00,,,0.00,VWS V14.01,2013-07-11 19:08:00,
2013-07-11 14:10:00,87.6,38.9,29.85,SE,135,6.0,6.0,18,0.00,,,0.00,VWS V14.01,2013-07-11 19:10:00,
2013-07-11 14:12:00,88.0,39.2,29.85,SSE,158,8.1,8.1,18,0.00,,,0.00,VWS V14.01,2013-07-11 19:12:00,
2013-07-11 14:14:00,88.2,39.4,29.88,SW,225,7.4,7.4,18,0.00,,,0.00,VWS V14.01,2013-07-11 19:14:00,
2013-07-11 14:16:00,88.2,39.4,29.88,WSW,248,11.4,11.4,18,0.00,,,0.00,VWS V14.01,2013-07-11 19:16:00,
2013-07-11 14:18:00,88.0,39.2,29.88,SSE,158,9.4,9.4,18,0.00,,,0.00,VWS V14.01,2013-07-11 19:18:00,
2013-07-11 14:20:00,88.3,39.5,29.88,SSE,158,4.7,4.7,18,0.00,,,0.00,VWS V14.01,2013-07-11 19:20:00,
2013-07-11 14:22:00,88.0,39.2,29.88,SW,225,9.4,9.4,18,0.00,,,0.00,VWS V14.01,2013-07-11 19:22:00,
2013-07-11 14:24:00,88.0,39.2,29.88,NNW,338,6.7,6.7,18,0.00,,,0.00,VWS V14.01,2013-07-11 19:24:00,
2013-07-11 14:25:00,88.0,39.2,29.88,WNW,292,8.7,8.7,18,0.00,,,0.00,VWS V14.01,2013-07-11 19:25:00,
2013-07-11 14:26:00,87.6,38.9,29.88,WSW,248,8.7,8.7,18,0.00,,,0.00,VWS V14.01,2013-07-11 19:26:00,
2013-07-11 14:28:00,87.8,39.1,29.88,SSW,202,9.4,9.4,18,0.00,,,0.00,VWS V14.01,2013-07-11 19:28:00,
2013-07-11 14:30:00,88.2,39.4,29.88,SSW,202,9.4,9.4,18,0.00,,,0.00,VWS V14.01,2013-07-11 19:30:00,
2013-07-11 14:32:00,89.1,40.1,29.88,East,90,2.7,3.1,18,0.00,,,0.00,VWS V14.01,2013-07-11 19:32:00,
2013-07-11 14:34:00,88.9,39.9,29.88,East,90,2.7,2.7,18,0.00,,,0.00,VWS V14.01,2013-07-11 19:34:00,
2013-07-11 14:36:00,88.9,39.9,29.88,East,90,2.7,2.7,18,0.00,,,0.00,VWS V14.01,2013-07-11 19:36:00,
2013-07-11 14:38:00,88.7,39.8,29.88,SSW,202,8.1,8.1,18,0.00,,,0.00,VWS V14.01,2013-07-11 19:38:00,
2013-07-11 14:40:00,88.5,39.7,29.88,WSW,248,8.1,8.1,18,0.00,,,0.00,VWS V14.01,2013-07-11 19:40:00,
2013-07-11 14:41:00,88.5,39.7,29.88,WSW,248,8.1,8.1,18,0.00,,,0.00,VWS V14.01,2013-07-11 19:41:00,
2013-07-11 14:42:00,88.7,39.8,29.88,WNW,292,4.0,4.0,18,0.00,,,0.00,VWS V14.01,2013-07-11 19:42:00,
2013-07-11 14:44:00,88.7,39.8,29.88,NNE,22,6.0,6.0,18,0.00,,,0.00,VWS V14.01,2013-07-11 19:44:00,
2013-07-11 14:46:00,88.9,39.9,29.88,South,180,4.7,4.7,18,0.00,,,0.00,VWS V14.01,2013-07-11 19:46:00,
2013-07-11 14:48:00,89.2,40.2,29.88,South,180,6.7,6.7,18,0.00,,,0.00,VWS V14.01,2013-07-11 19:48:00,
2013-07-11 14:50:00,89.4,40.4,29.88,NNW,338,9.4,9.4,18,0.00,,,0.00,VWS V14.01,2013-07-11 19:50:00,
2013-07-11 14:51:00,89.4,40.4,29.88,SE,135,3.4,3.4,18,0.00,,,0.00,VWS V14.01,2013-07-11 19:51:00,
2013-07-11 14:52:00,89.2,40.2,29.88,North,0,14.8,14.8,18,0.00,,,0.00,VWS V14.01,2013-07-11 19:52:00,
2013-07-11 14:54:00,88.5,39.7,29.88,North,0,14.8,14.8,18,0.00,,,0.00,VWS V14.01,2013-07-11 19:54:00,
2013-07-11 14:56:00,88.5,39.7,29.88,SSE,158,6.0,6.0,18,0.00,,,0.00,VWS V14.01,2013-07-11 19:56:00,
2013-07-11 14:58:00,89.1,40.1,29.91,SSE,158,6.0,6.0,18,0.00,,,0.00,VWS V14.01,2013-07-11 19:58:00,
2013-07-11 15:00:00,88.9,39.9,29.91,South,180,9.4,9.4,18,0.00,,,0.00,VWS V14.01,2013-07-11 20:00:00,
2013-07-11 15:01:00,88.9,39.9,29.91,South,180,9.4,9.4,18,0.00,,,0.00,VWS V14.01,2013-07-11 20:01:00,
2013-07-11 15:02:00,88.7,39.8,29.91,SW,225,6.0,6.0,18,0.00,,,0.00,VWS V14.01,2013-07-11 20:02:00,
2013-07-11 15:04:00,88.9,35.3,29.91,South,180,7.4,7.4,15,0.00,,,0.00,VWS V14.01,2013-07-11 20:04:00,
2013-07-11 15:06:00,89.1,40.1,29.91,SW,225,11.4,11.4,18,0.00,,,0.00,VWS V14.01,2013-07-11 20:06:00,
2013-07-11 15:08:00,89.2,40.2,29.91,WSW,248,8.1,8.1,18,0.00,,,0.00,VWS V14.01,2013-07-11 20:08:00,
2013-07-11 15:10:00,89.1,40.1,29.91,WNW,292,4.7,4.7,18,0.00,,,0.00,VWS V14.01,2013-07-11 20:10:00,
2013-07-11 15:11:00,89.1,40.1,29.91,WNW,292,4.7,4.7,18,0.00,,,0.00,VWS V14.01,2013-07-11 20:11:00,
2013-07-11 15:12:00,89.2,40.2,29.91,SSW,202,8.1,8.1,18,0.00,,,0.00,VWS V14.01,2013-07-11 20:12:00,
2013-07-11 15:14:00,88.9,39.9,29.88,East,90,8.1,8.1,18,0.00,,,0.00,VWS V14.01,2013-07-11 20:14:00,
2013-07-11 15:16:00,89.1,40.1,29.88,South,180,3.4,3.4,18,0.00,,,0.00,VWS V14.01,2013-07-11 20:16:00,
2013-07-11 15:18:00,88.9,39.9,29.88,WSW,248,7.4,7.4,18,0.00,,,0.00,VWS V14.01,2013-07-11 20:18:00,
2013-07-11 15:20:00,88.9,39.9,29.88,West,270,6.0,6.0,18,0.00,,,0.00,VWS V14.01,2013-07-11 20:20:00,
2013-07-11 15:21:00,88.9,39.9,29.88,South,180,7.4,7.4,18,0.00,,,0.00,VWS V14.01,2013-07-11 20:21:00,
2013-07-11 15:22:00,88.9,39.9,29.88,SSW,202,7.4,7.4,18,0.00,,,0.00,VWS V14.01,2013-07-11 20:22:00,
2013-07-11 15:24:00,88.9,39.9,29.88,SSE,158,7.4,7.4,18,0.00,,,0.00,VWS V14.01,2013-07-11 20:24:00,
2013-07-11 15:26:00,88.7,39.8,29.88,SW,225,10.7,10.7,18,0.00,,,0.00,VWS V14.01,2013-07-11 20:26:00,
2013-07-11 15:28:00,88.7,39.8,29.88,West,270,6.7,6.7,18,0.00,,,0.00,VWS V14.01,2013-07-11 20:28:00,
2013-07-11 15:30:00,88.9,39.9,29.88,North,0,2.7,2.7,18,0.00,,,0.00,VWS V14.01,2013-07-11 20:30:00,
2013-07-11 15:31:00,89.1,40.1,29.88,North,0,2.7,2.7,18,0.00,,,0.00,VWS V14.01,2013-07-11 20:31:00,
2013-07-11 15:32:00,89.6,39.1,29.88,ESE,112,4.0,4.0,17,0.00,,,0.00,VWS V14.01,2013-07-11 20:32:00,
2013-07-11 15:34:00,89.6,39.1,29.88,WNW,292,4.7,4.7,17,0.00,,,0.00,VWS V14.01,2013-07-11 20:34:00,
2013-07-11 15:36:00,89.4,40.4,29.88,South,180,2.7,2.9,18,0.00,,,0.00,VWS V14.01,2013-07-11 20:36:00,
2013-07-11 15:38:00,89.2,40.2,29.88,SSW,202,9.4,9.4,18,0.00,,,0.00,VWS V14.01,2013-07-11 20:38:00,
2013-07-11 15:40:00,89.4,40.4,29.88,WNW,292,8.7,8.7,18,0.00,,,0.00,VWS V14.01,2013-07-11 20:40:00,
2013-07-11 15:41:00,89.4,40.4,29.88,SE,135,7.4,7.4,18,0.00,,,0.00,VWS V14.01,2013-07-11 20:41:00,
2013-07-11 15:42:00,89.4,40.4,29.88,South,180,6.7,6.7,18,0.00,,,0.00,VWS V14.01,2013-07-11 20:42:00,
2013-07-11 15:44:00,89.8,39.2,29.88,South,180,6.7,6.7,17,0.00,,,0.00,VWS V14.01,2013-07-11 20:44:00,
2013-07-11 15:46:00,90.1,39.5,29.88,South,180,6.7,6.7,17,0.00,,,0.00,VWS V14.01,2013-07-11 20:46:00,
2013-07-11 15:48:00,88.5,35.0,29.88,NE,45,4.7,4.7,15,0.00,,,0.00,VWS V14.01,2013-07-11 20:48:00,
2013-07-11 15:50:00,88.2,34.7,29.88,NE,45,4.7,4.7,15,0.00,,,0.00,VWS V14.01,2013-07-11 20:50:00,
2013-07-11 15:51:00,88.2,34.7,29.88,NE,45,4.7,4.7,15,0.00,,,0.00,VWS V14.01,2013-07-11 20:51:00,
2013-07-11 15:52:00,88.5,39.7,29.88,NE,45,4.7,4.7,18,0.00,,,0.00,VWS V14.01,2013-07-11 20:52:00,
2013-07-11 15:54:00,88.9,39.9,29.88,NE,45,4.7,4.7,18,0.00,,,0.00,VWS V14.01,2013-07-11 20:54:00,
2013-07-11 15:56:00,89.1,35.5,29.88,NE,45,4.7,4.7,15,0.00,,,0.00,VWS V14.01,2013-07-11 20:56:00,
2013-07-11 15:58:00,89.2,35.6,29.85,NE,45,4.7,4.7,15,0.00,,,0.00,VWS V14.01,2013-07-11 20:58:00,
2013-07-11 16:00:00,89.1,35.5,29.85,NE,45,4.7,4.7,15,0.00,,,0.00,VWS V14.01,2013-07-11 21:00:00,
2013-07-11 16:01:00,88.9,39.9,29.85,NE,45,4.7,4.7,18,0.00,,,0.00,VWS V14.01,2013-07-11 21:01:00,
2013-07-11 16:02:00,88.5,35.0,29.85,NE,45,4.7,4.7,15,0.00,,,0.00,VWS V14.01,2013-07-11 21:02:00,
2013-07-11 16:04:00,88.9,35.3,29.85,NE,45,4.7,4.7,15,0.00,,,0.00,VWS V14.01,2013-07-11 21:04:00,
2013-07-11 16:06:00,88.9,39.9,29.85,NE,45,4.7,4.7,18,0.00,,,0.00,VWS V14.01,2013-07-11 21:06:00,
2013-07-11 16:08:00,88.7,35.2,29.85,South,180,10.7,10.7,15,0.00,,,0.00,VWS V14.01,2013-07-11 21:08:00,
2013-07-11 16:10:00,88.3,34.9,29.85,South,180,12.8,12.8,15,0.00,,,0.00,VWS V14.01,2013-07-11 21:10:00,
2013-07-11 16:11:00,88.3,34.9,29.85,SSE,158,3.4,4.3,15,0.00,,,0.00,VWS V14.01,2013-07-11 21:11:00,
2013-07-11 16:12:00,88.2,34.7,29.85,SE,135,8.7,8.7,15,0.00,,,0.00,VWS V14.01,2013-07-11 21:12:00,
2013-07-11 16:14:00,88.3,34.9,29.85,West,270,4.7,4.7,15,0.00,,,0.00,VWS V14.01,2013-07-11 21:14:00,
2013-07-11 16:16:00,88.2,34.7,29.85,SE,135,10.1,10.1,15,0.00,,,0.00,VWS V14.01,2013-07-11 21:16:00,
2013-07-11 16:17:00,88.2,34.7,29.85,SE,135,10.1,10.1,15,0.00,,,0.00,VWS V14.01,2013-07-11 21:17:00,
2013-07-11 16:18:00,87.6,35.9,29.85,South,180,10.7,10.7,16,0.00,,,0.00,VWS V14.01,2013-07-11 21:18:00,
2013-07-11 16:20:00,87.4,35.8,29.85,South,180,10.7,10.7,16,0.00,,,0.00,VWS V14.01,2013-07-11 21:20:00,
2013-07-11 16:21:00,87.4,35.8,29.85,South,180,10.7,10.7,16,0.00,,,0.00,VWS V14.01,2013-07-11 21:21:00,
2013-07-11 16:22:00,87.4,35.8,29.85,South,180,8.1,8.1,16,0.00,,,0.00,VWS V14.01,2013-07-11 21:22:00,
2013-07-11 16:24:00,87.6,35.9,29.85,SW,225,8.7,8.7,16,0.00,,,0.00,VWS V14.01,2013-07-11 21:24:00,
2013-07-11 16:26:00,87.6,35.9,29.85,NNE,22,9.4,9.4,16,0.00,,,0.00,VWS V14.01,2013-07-11 21:26:00,
2013-07-11 16:27:00,87.6,35.9,29.85,NNE,22,9.4,9.4,16,0.00,,,0.00,VWS V14.01,2013-07-11 21:27:00,
2013-07-11 16:28:00,87.6,35.9,29.85,SW,225,8.1,8.1,16,0.00,,,0.00,VWS V14.01,2013-07-11 21:28:00,
2013-07-11 16:30:00,87.4,35.8,29.85,SW,225,8.1,8.1,16,0.00,,,0.00,VWS V14.01,2013-07-11 21:30:00,
2013-07-11 16:32:00,87.4,35.8,29.85,SW,225,8.1,8.1,16,0.00,,,0.00,VWS V14.01,2013-07-11 21:32:00,
2013-07-11 16:34:00,87.6,35.9,29.85,SW,225,8.1,8.1,16,0.00,,,0.00,VWS V14.01,2013-07-11 21:34:00,
2013-07-11 16:36:00,87.6,35.9,29.85,South,180,12.8,12.8,16,0.00,,,0.00,VWS V14.01,2013-07-11 21:36:00,
2013-07-11 16:37:00,87.6,35.9,29.85,South,180,12.8,12.8,16,0.00,,,0.00,VWS V14.01,2013-07-11 21:37:00,
2013-07-11 16:38:00,87.8,34.5,29.85,SSE,158,10.1,10.1,15,0.00,,,0.00,VWS V14.01,2013-07-11 21:38:00,
2013-07-11 16:40:00,87.6,35.9,29.85,SW,225,4.0,5.8,16,0.00,,,0.00,VWS V14.01,2013-07-11 21:40:00,
2013-07-11 16:42:00,87.4,35.8,29.85,South,180,11.4,11.4,16,0.00,,,0.00,VWS V14.01,2013-07-11 21:42:00,
2013-07-11 16:44:00,87.1,35.5,29.85,South,180,12.1,12.1,16,0.00,,,0.00,VWS V14.01,2013-07-11 21:44:00,
2013-07-11 16:46:00,87.1,35.5,29.85,NNW,338,8.1,8.1,16,0.00,,,0.00,VWS V14.01,2013-07-11 21:46:00,
2013-07-11 16:47:00,87.1,35.5,29.85,NNW,338,8.1,8.1,16,0.00,,,0.00,VWS V14.01,2013-07-11 21:47:00,
2013-07-11 16:48:00,87.1,38.5,29.85,SSW,202,16.8,16.8,18,0.00,,,0.00,VWS V14.01,2013-07-11 21:48:00,
2013-07-11 16:50:00,87.6,38.9,29.85,SSE,158,8.1,8.1,18,0.00,,,0.00,VWS V14.01,2013-07-11 21:50:00,
2013-07-11 16:52:00,87.3,38.6,29.85,South,180,12.8,12.8,18,0.00,,,0.00,VWS V14.01,2013-07-11 21:52:00,
2013-07-11 16:54:00,88.0,39.2,29.85,SSW,202,14.1,14.1,18,0.00,,,0.00,VWS V14.01,2013-07-11 21:54:00,
2013-07-11 16:56:00,87.6,35.9,29.85,SE,135,6.7,6.7,16,0.00,,,0.00,VWS V14.01,2013-07-11 21:56:00,
2013-07-11 16:57:00,87.6,35.9,29.85,SE,135,6.7,6.7,16,0.00,,,0.00,VWS V14.01,2013-07-11 21:57:00,
2013-07-11 16:58:00,87.4,38.8,29.82,NE,45,4.7,4.7,18,0.00,,,0.00,VWS V14.01,2013-07-11 21:58:00,
2013-07-11 17:00:00,87.4,35.8,29.82,NE,45,18.8,18.8,16,0.00,,,0.00,VWS V14.01,2013-07-11 22:00:00,
2013-07-11 17:02:00,87.4,38.8,29.82,SW,225,3.4,6.3,18,0.00,,,0.00,VWS V14.01,2013-07-11 22:02:00,
2013-07-11 17:04:00,87.4,38.8,29.82,SW,225,12.8,12.8,18,0.00,,,0.00,VWS V14.01,2013-07-11 22:04:00,
2013-07-11 17:06:00,87.6,38.9,29.82,WNW,292,9.4,9.4,18,0.00,,,0.00,VWS V14.01,2013-07-11 22:06:00,
2013-07-11 17:07:00,87.6,38.9,29.82,WNW,292,9.4,9.4,18,0.00,,,0.00,VWS V14.01,2013-07-11 22:07:00,
2013-07-11 17:08:00,87.8,39.1,29.82,ESE,112,8.7,8.7,18,0.00,,,0.00,VWS V14.01,2013-07-11 22:08:00,
2013-07-11 17:10:00,88.0,39.2,29.82,North,0,6.0,6.0,18,0.00,,,0.00,VWS V14.01,2013-07-11 22:10:00,
2013-07-11 17:12:00,88.0,39.2,29.82,North,0,6.0,6.0,18,0.00,,,0.00,VWS V14.01,2013-07-11 22:12:00,
2013-07-11 17:14:00,88.0,39.2,29.85,SSE,158,8.1,8.1,18,0.00,,,0.00,VWS V14.01,2013-07-11 22:14:00,
2013-07-11 17:16:00,87.4,38.8,29.85,SW,225,9.4,9.4,18,0.00,,,0.00,VWS V14.01,2013-07-11 22:16:00,
2013-07-11 17:17:00,87.4,38.8,29.85,SW,225,9.4,9.4,18,0.00,,,0.00,VWS V14.01,2013-07-11 22:17:00,
2013-07-11 17:18:00,87.6,35.9,29.85,SW,225,10.1,10.1,16,0.00,,,0.00,VWS V14.01,2013-07-11 22:18:00,
2013-07-11 17:20:00,87.3,38.6,29.85,SSE,158,9.4,9.4,18,0.00,,,0.00,VWS V14.01,2013-07-11 22:20:00,
2013-07-11 17:22:00,87.3,38.6,29.85,SSE,158,7.4,7.4,18,0.00,,,0.00,VWS V14.01,2013-07-11 22:22:00,
2013-07-11 17:24:00,87.3,38.6,29.85,SSW,202,16.1,16.1,18,0.00,,,0.00,VWS V14.01,2013-07-11 22:24:00,
2013-07-11 17:26:00,87.1,38.5,29.85,WNW,292,2.7,5.4,18,0.00,,,0.00,VWS V14.01,2013-07-11 22:26:00,
2013-07-11 17:27:00,87.1,38.5,29.85,WNW,292,2.7,5.4,18,0.00,,,0.00,VWS V14.01,2013-07-11 22:27:00,
2013-07-11 17:28:00,87.3,38.6,29.82,NE,45,6.7,6.7,18,0.00,,,0.00,VWS V14.01,2013-07-11 22:28:00,
2013-07-11 17:30:00,87.4,38.8,29.82,SW,225,4.0,4.0,18,0.00,,,0.00,VWS V14.01,2013-07-11 22:30:00,
2013-07-11 17:32:00,87.4,38.8,29.82,South,180,12.1,12.1,18,0.00,,,0.00,VWS V14.01,2013-07-11 22:32:00,
2013-07-11 17:34:00,87.3,38.6,29.82,SW,225,6.0,6.0,18,0.00,,,0.00,VWS V14.01,2013-07-11 22:34:00,
2013-07-11 17:36:00,87.1,38.5,29.82,ENE,68,11.4,11.4,18,0.00,,,0.00,VWS V14.01,2013-07-11 22:36:00,
2013-07-11 17:37:00,87.1,38.5,29.82,South,180,14.1,14.1,18,0.00,,,0.00,VWS V14.01,2013-07-11 22:37:00,
2013-07-11 17:38:00,86.7,38.2,29.82,SSW,202,4.7,6.3,18,0.00,,,0.00,VWS V14.01,2013-07-11 22:38:00,
2013-07-11 17:40:00,86.5,38.0,29.82,South,180,6.0,6.0,18,0.00,,,0.00,VWS V14.01,2013-07-11 22:40:00,
2013-07-11 17:42:00,86.7,38.2,29.82,SE,135,4.0,4.0,18,0.00,,,0.00,VWS V14.01,2013-07-11 22:42:00,
2013-07-11 17:44:00,86.9,38.3,29.82,SSE,158,7.4,7.4,18,0.00,,,0.00,VWS V14.01,2013-07-11 22:44:00,
2013-07-11 17:46:00,86.5,38.0,29.82,SW,225,11.4,11.4,18,0.00,,,0.00,VWS V14.01,2013-07-11 22:46:00,
2013-07-11 17:47:00,86.5,38.0,29.82,SW,225,11.4,11.4,18,0.00,,,0.00,VWS V14.01,2013-07-11 22:47:00,
2013-07-11 17:48:00,86.2,37.8,29.82,WNW,292,8.1,8.1,18,0.00,,,0.00,VWS V14.01,2013-07-11 22:48:00,
2013-07-11 17:50:00,85.8,37.5,29.82,NW,315,4.0,4.0,18,0.00,,,0.00,VWS V14.01,2013-07-11 22:50:00,
2013-07-11 17:52:00,85.5,37.2,29.82,WSW,248,4.7,4.7,18,0.00,,,0.00,VWS V14.01,2013-07-11 22:52:00,
2013-07-11 17:54:00,84.6,36.4,29.82,WSW,248,4.7,4.7,18,0.00,,,0.00,VWS V14.01,2013-07-11 22:54:00,
2013-07-11 17:56:00,84.6,36.4,29.82,SSW,202,3.4,3.4,18,0.00,,,0.00,VWS V14.01,2013-07-11 22:56:00,
2013-07-11 17:57:00,84.6,36.4,29.82,SSW,202,3.4,3.4,18,0.00,,,0.00,VWS V14.01,2013-07-11 22:57:00,
2013-07-11 17:58:00,84.4,36.3,29.82,SE,135,12.1,12.1,18,0.00,,,0.00,VWS V14.01,2013-07-11 22:58:00,
2013-07-11 18:00:00,84.2,36.2,29.82,SSE,158,10.7,10.7,18,0.00,,,0.00,VWS V14.01,2013-07-11 23:00:00,
2013-07-11 18:02:00,83.8,37.2,29.82,South,180,11.4,11.4,19,0.00,,,0.00,VWS V14.01,2013-07-11 23:02:00,
2013-07-11 18:03:00,83.8,37.2,29.82,South,180,11.4,11.4,19,0.00,,,0.00,VWS V14.01,2013-07-11 23:03:00,
2013-07-11 18:04:00,84.2,36.2,29.82,ENE,68,8.1,8.1,18,0.00,,,0.00,VWS V14.01,2013-07-11 23:04:00,
2013-07-11 18:06:00,84.4,36.3,29.82,SW,225,8.7,8.7,18,0.00,,,0.00,VWS V14.01,2013-07-11 23:06:00,
2013-07-11 18:08:00,84.4,36.3,29.82,SW,225,8.7,8.7,18,0.00,,,0.00,VWS V14.01,2013-07-11 23:08:00,
2013-07-11 18:10:00,84.6,36.4,29.82,SSW,202,12.8,12.8,18,0.00,,,0.00,VWS V14.01,2013-07-11 23:10:00,
2013-07-11 18:12:00,84.2,36.2,29.82,South,180,12.1,12.1,18,0.00,,,0.00,VWS V14.01,2013-07-11 23:12:00,
2013-07-11 18:13:00,84.4,36.3,29.82,South,180,12.1,12.1,18,0.00,,,0.00,VWS V14.01,2013-07-11 23:13:00,
2013-07-11 18:14:00,84.2,36.2,29.82,WSW,248,4.7,4.7,18,0.00,,,0.00,VWS V14.01,2013-07-11 23:14:00,
2013-07-11 18:16:00,84.0,37.4,29.82,SSW,202,4.7,4.7,19,0.00,,,0.00,VWS V14.01,2013-07-11 23:16:00,
2013-07-11 18:18:00,84.0,37.4,29.82,SSW,202,4.7,4.7,19,0.00,,,0.00,VWS V14.01,2013-07-11 23:18:00,
2013-07-11 18:20:00,84.0,37.4,29.82,South,180,6.0,6.0,19,0.00,,,0.00,VWS V14.01,2013-07-11 23:20:00,
2013-07-11 18:22:00,84.0,37.4,29.82,ESE,112,7.4,7.4,19,0.00,,,0.00,VWS V14.01,2013-07-11 23:22:00,
2013-07-11 18:23:00,84.0,37.4,29.82,ESE,112,7.4,7.4,19,0.00,,,0.00,VWS V14.01,2013-07-11 23:23:00,
2013-07-11 18:24:00,83.7,37.1,29.82,South,180,10.1,10.1,19,0.00,,,0.00,VWS V14.01,2013-07-11 23:24:00,
2013-07-11 18:26:00,83.8,37.2,29.82,South,180,10.1,10.1,19,0.00,,,0.00,VWS V14.01,2013-07-11 23:26:00,
2013-07-11 18:28:00,83.8,37.2,29.82,South,180,10.1,10.1,19,0.00,,,0.00,VWS V14.01,2013-07-11 23:28:00,
2013-07-11 18:30:00,83.8,37.2,29.82,South,180,6.0,6.0,19,0.00,,,0.00,VWS V14.01,2013-07-11 23:30:00,
2013-07-11 18:32:00,83.8,37.2,29.82,WSW,248,8.7,8.7,19,0.00,,,0.00,VWS V14.01,2013-07-11 23:32:00,
2013-07-11 18:33:00,83.8,37.2,29.82,WSW,248,8.7,8.7,19,0.00,,,0.00,VWS V14.01,2013-07-11 23:33:00,
2013-07-11 18:34:00,83.7,37.1,29.82,WSW,248,8.7,8.7,19,0.00,,,0.00,VWS V14.01,2013-07-11 23:34:00,
2013-07-11 18:36:00,83.5,36.9,29.82,WSW,248,8.7,8.7,19,0.00,,,0.00,VWS V14.01,2013-07-11 23:36:00,
2013-07-11 18:38:00,83.3,36.8,29.82,WSW,248,8.7,8.7,19,0.00,,,0.00,VWS V14.01,2013-07-11 23:38:00,
2013-07-11 18:40:00,82.9,36.5,29.82,WSW,248,8.7,8.7,19,0.00,,,0.00,VWS V14.01,2013-07-11 23:40:00,
2013-07-11 18:42:00,82.8,36.3,29.82,WSW,248,8.7,8.7,19,0.00,,,0.00,VWS V14.01,2013-07-11 23:42:00,
2013-07-11 18:43:00,82.8,36.3,29.82,WSW,248,8.7,8.7,19,0.00,,,0.00,VWS V14.01,2013-07-11 23:43:00,
2013-07-11 18:44:00,82.8,36.3,29.82,WSW,248,8.7,8.7,19,0.00,,,0.00,VWS V14.01,2013-07-11 23:44:00,
2013-07-11 18:46:00,82.6,36.2,29.82,WSW,248,8.7,8.7,19,0.00,,,0.00,VWS V14.01,2013-07-11 23:46:00,
2013-07-11 18:48:00,82.6,36.2,29.82,WSW,248,8.7,8.7,19,0.00,,,0.00,VWS V14.01,2013-07-11 23:48:00,
2013-07-11 18:50:00,81.9,35.6,29.82,WSW,248,8.7,8.7,19,0.00,,,0.00,VWS V14.01,2013-07-11 23:50:00,
2013-07-11 18:52:00,81.9,35.6,29.82,WSW,248,8.7,8.7,19,0.00,,,0.00,VWS V14.01,2013-07-11 23:52:00,
2013-07-11 18:53:00,81.9,35.6,29.82,WSW,248,8.7,8.7,19,0.00,,,0.00,VWS V14.01,2013-07-11 23:53:00,
2013-07-11 18:54:00,81.7,35.5,29.82,WSW,248,8.7,8.7,19,0.00,,,0.00,VWS V14.01,2013-07-11 23:54:00,
2013-07-11 18:56:00,81.5,35.3,29.82,WSW,248,8.7,8.7,19,0.00,,,0.00,VWS V14.01,2013-07-11 23:56:00,
2013-07-11 18:58:00,81.3,35.2,29.82,WSW,248,8.7,8.7,19,0.00,,,0.00,VWS V14.01,2013-07-11 23:58:00,
2013-07-11 19:00:00,80.8,34.7,29.82,WSW,248,8.7,8.7,19,0.00,,,0.00,VWS V14.01,2013-07-12 00:00:00,
2013-07-11 19:02:00,80.6,34.6,29.82,WSW,248,8.7,8.7,19,0.00,,,0.00,VWS V14.01,2013-07-12 00:02:00,
2013-07-11 19:04:00,80.6,34.6,29.82,WSW,248,8.7,8.7,19,0.00,,,0.00,VWS V14.01,2013-07-12 00:04:00,
2013-07-11 19:06:00,80.4,35.7,29.82,WSW,248,8.7,8.7,20,0.00,,,0.00,VWS V14.01,2013-07-12 00:06:00,
2013-07-11 19:08:00,80.4,35.7,29.82,WSW,248,8.7,8.7,20,0.00,,,0.00,VWS V14.01,2013-07-12 00:08:00,
2013-07-11 19:09:00,80.4,35.7,29.82,WSW,248,8.7,8.7,20,0.00,,,0.00,VWS V14.01,2013-07-12 00:09:00,
2013-07-11 19:10:00,80.4,35.7,29.82,WSW,248,8.7,8.7,20,0.00,,,0.00,VWS V14.01,2013-07-12 00:10:00,
2013-07-11 19:12:00,80.2,35.6,29.82,WSW,248,8.7,8.7,20,0.00,,,0.00,VWS V14.01,2013-07-12 00:12:00,
2013-07-11 19:14:00,80.2,35.6,29.82,WSW,248,8.7,8.7,20,0.00,,,0.00,VWS V14.01,2013-07-12 00:14:00,
2013-07-11 19:16:00,80.1,35.4,29.82,WSW,248,8.7,8.7,20,0.00,,,0.00,VWS V14.01,2013-07-12 00:16:00,
2013-07-11 19:18:00,79.7,35.1,29.82,WSW,248,8.7,8.7,20,0.00,,,0.00,VWS V14.01,2013-07-12 00:18:00,
2013-07-11 19:19:00,79.7,35.1,29.82,WSW,248,8.7,8.7,20,0.00,,,0.00,VWS V14.01,2013-07-12 00:19:00,
2013-07-11 19:20:00,79.5,35.0,29.82,WSW,248,8.7,8.7,20,0.00,,,0.00,VWS V14.01,2013-07-12 00:20:00,
2013-07-11 19:22:00,79.3,34.8,29.82,WSW,248,8.7,8.7,20,0.00,,,0.00,VWS V14.01,2013-07-12 00:22:00,
2013-07-11 19:24:00,79.3,34.8,29.82,WSW,248,8.7,8.7,20,0.00,,,0.00,VWS V14.01,2013-07-12 00:24:00,
2013-07-11 19:26:00,79.0,34.5,29.82,WSW,248,8.7,8.7,20,0.00,,,0.00,VWS V14.01,2013-07-12 00:26:00,
2013-07-11 19:28:00,78.8,34.4,29.82,WSW,248,8.7,8.7,20,0.00,,,0.00,VWS V14.01,2013-07-12 00:28:00,
2013-07-11 19:29:00,78.8,34.4,29.82,WSW,248,8.7,8.7,20,0.00,,,0.00,VWS V14.01,2013-07-12 00:29:00,
2013-07-11 19:30:00,78.6,34.2,29.82,SE,135,3.4,3.4,20,0.00,,,0.00,VWS V14.01,2013-07-12 00:30:00,
2013-07-11 19:32:00,78.6,34.2,29.82,SE,135,3.4,3.4,20,0.00,,,0.00,VWS V14.01,2013-07-12 00:32:00,
2013-07-11 19:34:00,78.6,34.2,29.82,SE,135,3.4,3.4,20,0.00,,,0.00,VWS V14.01,2013-07-12 00:34:00,
2013-07-11 19:36:00,78.4,34.1,29.82,SE,135,3.4,3.4,20,0.00,,,0.00,VWS V14.01,2013-07-12 00:36:00,
2013-07-11 19:38:00,78.4,35.3,29.82,SE,135,3.4,3.4,21,0.00,,,0.00,VWS V14.01,2013-07-12 00:38:00,
2013-07-11 19:39:00,78.4,35.3,29.82,SE,135,3.4,3.4,21,0.00,,,0.00,VWS V14.01,2013-07-12 00:39:00,
2013-07-11 19:40:00,78.3,35.2,29.82,SE,135,3.4,3.4,21,0.00,,,0.00,VWS V14.01,2013-07-12 00:40:00,
2013-07-11 19:42:00,78.3,35.2,29.82,SE,135,3.4,3.4,21,0.00,,,0.00,VWS V14.01,2013-07-12 00:42:00,
2013-07-11 19:44:00,78.3,35.2,29.82,SE,135,3.4,3.4,21,0.00,,,0.00,VWS V14.01,2013-07-12 00:44:00,
2013-07-11 19:46:00,78.1,35.0,29.82,SE,135,3.4,3.4,21,0.00,,,0.00,VWS V14.01,2013-07-12 00:46:00,
2013-07-11 19:48:00,77.9,34.9,29.82,SE,135,3.4,3.4,21,0.00,,,0.00,VWS V14.01,2013-07-12 00:48:00,
2013-07-11 19:49:00,77.9,34.9,29.82,SE,135,3.4,3.4,21,0.00,,,0.00,VWS V14.01,2013-07-12 00:49:00,
2013-07-11 19:50:00,77.7,34.7,29.82,SE,135,3.4,3.4,21,0.00,,,0.00,VWS V14.01,2013-07-12 00:50:00,
2013-07-11 19:52:00,77.7,34.7,29.82,SE,135,3.4,3.4,21,0.00,,,0.00,VWS V14.01,2013-07-12 00:52:00,
2013-07-11 19:54:00,77.5,34.6,29.82,SE,135,3.4,3.4,21,0.00,,,0.00,VWS V14.01,2013-07-12 00:54:00,
2013-07-11 19:56:00,77.5,34.6,29.82,SE,135,3.4,3.4,21,0.00,,,0.00,VWS V14.01,2013-07-12 00:56:00,
2013-07-11 19:58:00,77.5,34.6,29.82,SE,135,3.4,3.4,21,0.00,,,0.00,VWS V14.01,2013-07-12 00:58:00,
2013-07-11 19:59:00,77.5,34.6,29.82,SE,135,3.4,3.4,21,0.00,,,0.00,VWS V14.01,2013-07-12 00:59:00,
2013-07-11 20:00:00,77.5,34.6,29.82,SE,135,3.4,3.4,21,0.00,,,0.00,VWS V14.01,2013-07-12 01:00:00,
2013-07-11 20:02:00,77.4,34.4,29.82,SW,225,0.0,1.1,21,0.00,,,0.00,VWS V14.01,2013-07-12 01:02:00,
2013-07-11 20:04:00,77.4,34.4,29.82,NW,315,0.0,1.1,21,0.00,,,0.00,VWS V14.01,2013-07-12 01:04:00,
2013-07-11 20:06:00,77.4,34.4,29.82,NW,315,0.0,0.0,21,0.00,,,0.00,VWS V14.01,2013-07-12 01:06:00,
2013-07-11 20:08:00,77.4,34.4,29.82,NW,315,0.0,0.0,21,0.00,,,0.00,VWS V14.01,2013-07-12 01:08:00,
2013-07-11 20:09:00,77.4,34.4,29.82,NW,315,0.0,0.0,21,0.00,,,0.00,VWS V14.01,2013-07-12 01:09:00,
2013-07-11 20:10:00,77.4,34.4,29.82,SSW,202,0.0,0.0,21,0.00,,,0.00,VWS V14.01,2013-07-12 01:10:00,
2013-07-11 20:12:00,77.4,34.4,29.82,SSW,202,0.0,0.0,21,0.00,,,0.00,VWS V14.01,2013-07-12 01:12:00,
2013-07-11 20:14:00,77.4,34.4,29.82,SSW,202,0.0,0.0,21,0.00,,,0.00,VWS V14.01,2013-07-12 01:14:00,
2013-07-11 20:16:00,77.4,34.4,29.82,SSW,202,0.0,0.0,21,0.00,,,0.00,VWS V14.01,2013-07-12 01:16:00,
2013-07-11 20:18:00,77.4,34.4,29.82,SSW,202,0.0,0.0,21,0.00,,,0.00,VWS V14.01,2013-07-12 01:18:00,
2013-07-11 20:19:00,77.4,34.4,29.82,SSW,202,0.0,0.0,21,0.00,,,0.00,VWS V14.01,2013-07-12 01:19:00,
2013-07-11 20:20:00,77.2,34.3,29.82,ESE,112,0.0,0.0,21,0.00,,,0.00,VWS V14.01,2013-07-12 01:20:00,
2013-07-11 20:22:00,77.2,34.3,29.82,ESE,112,4.0,4.0,21,0.00,,,0.00,VWS V14.01,2013-07-12 01:22:00,
2013-07-11 20:24:00,77.0,34.1,29.82,ESE,112,4.0,4.0,21,0.00,,,0.00,VWS V14.01,2013-07-12 01:24:00,
2013-07-11 20:26:00,76.8,35.1,29.82,ESE,112,4.0,4.0,22,0.00,,,0.00,VWS V14.01,2013-07-12 01:26:00,
2013-07-11 20:28:00,76.6,35.0,29.82,ESE,112,4.0,4.0,22,0.00,,,0.00,VWS V14.01,2013-07-12 01:28:00,
2013-07-11 20:29:00,76.6,35.0,29.82,ESE,112,4.0,4.0,22,0.00,,,0.00,VWS V14.01,2013-07-12 01:29:00,
2013-07-11 20:30:00,76.5,34.8,29.82,ESE,112,4.0,4.0,22,0.00,,,0.00,VWS V14.01,2013-07-12 01:30:00,
2013-07-11 20:32:00,76.3,34.7,29.82,ESE,112,4.0,4.0,22,0.00,,,0.00,VWS V14.01,2013-07-12 01:32:00,
2013-07-11 20:34:00,76.3,34.7,29.82,ESE,112,4.0,4.0,22,0.00,,,0.00,VWS V14.01,2013-07-12 01:34:00,
2013-07-11 20:36:00,75.9,34.4,29.82,North,0,0.0,1.3,22,0.00,,,0.00,VWS V14.01,2013-07-12 01:36:00,
2013-07-11 20:38:00,75.6,34.1,29.82,North,0,0.0,0.0,22,0.00,,,0.00,VWS V14.01,2013-07-12 01:38:00,
2013-07-11 20:39:00,75.6,34.1,29.82,North,0,0.0,0.0,22,0.00,,,0.00,VWS V14.01,2013-07-12 01:39:00,
2013-07-11 20:40:00,75.4,33.9,29.82,North,0,0.0,0.0,22,0.00,,,0.00,VWS V14.01,2013-07-12 01:40:00,
2013-07-11 20:42:00,75.2,33.8,29.82,North,0,0.0,0.0,22,0.00,,,0.00,VWS V14.01,2013-07-12 01:42:00,
2013-07-11 20:44:00,75.0,33.6,29.82,North,0,0.0,0.0,22,0.00,,,0.00,VWS V14.01,2013-07-12 01:44:00,
2013-07-11 20:46:00,74.8,33.5,29.82,North,0,0.0,0.0,22,0.00,,,0.00,VWS V14.01,2013-07-12 01:46:00,
2013-07-11 20:48:00,74.7,33.3,29.82,North,0,0.0,0.0,22,0.00,,,0.00,VWS V14.01,2013-07-12 01:48:00,
2013-07-11 20:50:00,74.7,34.4,29.82,North,0,0.0,0.0,23,0.00,,,0.00,VWS V14.01,2013-07-12 01:50:00,
2013-07-11 20:52:00,74.5,34.3,29.82,North,0,0.0,0.0,23,0.00,,,0.00,VWS V14.01,2013-07-12 01:52:00,
2013-07-11 20:54:00,74.5,34.3,29.82,North,0,0.0,0.0,23,0.00,,,0.00,VWS V14.01,2013-07-12 01:54:00,
2013-07-11 20:55:00,74.5,34.3,29.82,North,0,0.0,0.0,23,0.00,,,0.00,VWS V14.01,2013-07-12 01:55:00,
2013-07-11 20:56:00,74.3,34.1,29.82,North,0,0.0,0.0,23,0.00,,,0.00,VWS V14.01,2013-07-12 01:56:00,
2013-07-11 20:58:00,74.1,34.0,29.82,North,0,0.0,0.0,23,0.00,,,0.00,VWS V14.01,2013-07-12 01:58:00,
2013-07-11 21:00:00,74.1,34.0,29.82,North,0,0.0,0.0,23,0.00,,,0.00,VWS V14.01,2013-07-12 02:00:00,
2013-07-11 21:02:00,74.1,34.0,29.82,West,270,0.0,0.0,23,0.00,,,0.00,VWS V14.01,2013-07-12 02:02:00,
2013-07-11 21:04:00,73.9,33.8,29.82,West,270,0.0,0.0,23,0.00,,,0.00,VWS V14.01,2013-07-12 02:04:00,
2013-07-11 21:05:00,73.9,33.8,29.82,West,270,0.0,0.0,23,0.00,,,0.00,VWS V14.01,2013-07-12 02:05:00,
2013-07-11 21:06:00,73.9,34.9,29.82,West,270,0.0,0.0,24,0.00,,,0.00,VWS V14.01,2013-07-12 02:06:00,
2013-07-11 21:08:00,73.9,34.9,29.82,West,270,0.0,0.0,24,0.00,,,0.00,VWS V14.01,2013-07-12 02:08:00,
2013-07-11 21:10:00,73.9,34.9,29.82,West,270,0.0,0.0,24,0.00,,,0.00,VWS V14.01,2013-07-12 02:10:00,
2013-07-11 21:12:00,73.9,34.9,29.82,West,270,0.0,0.0,24,0.00,,,0.00,VWS V14.01,2013-07-12 02:12:00,
2013-07-11 21:14:00,73.8,34.8,29.82,West,270,0.0,0.0,24,0.00,,,0.00,VWS V14.01,2013-07-12 02:14:00,
2013-07-11 21:15:00,73.8,34.8,29.82,West,270,0.0,0.0,24,0.00,,,0.00,VWS V14.01,2013-07-12 02:15:00,
2013-07-11 21:16:00,73.8,34.8,29.82,West,270,0.0,0.0,24,0.00,,,0.00,VWS V14.01,2013-07-12 02:16:00,
2013-07-11 21:18:00,73.8,34.8,29.82,West,270,0.0,0.0,24,0.00,,,0.00,VWS V14.01,2013-07-12 02:18:00,
2013-07-11 21:20:00,73.8,34.8,29.82,West,270,0.0,0.0,24,0.00,,,0.00,VWS V14.01,2013-07-12 02:20:00,
2013-07-11 21:22:00,73.8,35.8,29.82,West,270,0.0,0.0,25,0.00,,,0.00,VWS V14.01,2013-07-12 02:22:00,
2013-07-11 21:24:00,73.8,35.8,29.82,West,270,0.0,0.0,25,0.00,,,0.00,VWS V14.01,2013-07-12 02:24:00,
2013-07-11 21:25:00,73.8,35.8,29.82,West,270,0.0,0.0,25,0.00,,,0.00,VWS V14.01,2013-07-12 02:25:00,
2013-07-11 21:26:00,73.8,35.8,29.82,West,270,0.0,0.0,25,0.00,,,0.00,VWS V14.01,2013-07-12 02:26:00,
2013-07-11 21:28:00,73.6,35.6,29.82,West,270,0.0,0.0,25,0.00,,,0.00,VWS V14.01,2013-07-12 02:28:00,
2013-07-11 21:30:00,73.6,35.6,29.82,West,270,0.0,0.0,25,0.00,,,0.00,VWS V14.01,2013-07-12 02:30:00,
2013-07-11 21:32:00,73.4,35.5,29.82,West,270,0.0,0.0,25,0.00,,,0.00,VWS V14.01,2013-07-12 02:32:00,
2013-07-11 21:34:00,73.4,35.5,29.82,West,270,0.0,0.0,25,0.00,,,0.00,VWS V14.01,2013-07-12 02:34:00,
2013-07-11 21:35:00,73.4,35.5,29.82,West,270,0.0,0.0,25,0.00,,,0.00,VWS V14.01,2013-07-12 02:35:00,
2013-07-11 21:36:00,73.4,35.5,29.82,West,270,0.0,0.0,25,0.00,,,0.00,VWS V14.01,2013-07-12 02:36:00,
2013-07-11 21:38:00,73.4,36.5,29.82,West,270,0.0,0.0,26,0.00,,,0.00,VWS V14.01,2013-07-12 02:38:00,
2013-07-11 21:40:00,73.2,36.3,29.82,West,270,0.0,0.0,26,0.00,,,0.00,VWS V14.01,2013-07-12 02:40:00,
2013-07-11 21:42:00,73.2,36.3,29.82,West,270,0.0,0.0,26,0.00,,,0.00,VWS V14.01,2013-07-12 02:42:00,
2013-07-11 21:44:00,73.2,37.3,29.82,West,270,0.0,0.0,27,0.00,,,0.00,VWS V14.01,2013-07-12 02:44:00,
2013-07-11 21:46:00,73.2,37.3,29.82,West,270,0.0,0.0,27,0.00,,,0.00,VWS V14.01,2013-07-12 02:46:00,
2013-07-11 21:48:00,73.2,37.3,29.82,West,270,0.0,0.0,27,0.00,,,0.00,VWS V14.01,2013-07-12 02:48:00,
2013-07-11 21:50:00,73.2,37.3,29.82,West,270,0.0,0.0,27,0.00,,,0.00,VWS V14.01,2013-07-12 02:50:00,
2013-07-11 21:51:00,73.2,38.2,29.82,West,270,0.0,0.0,28,0.00,,,0.00,VWS V14.01,2013-07-12 02:51:00,
2013-07-11 21:52:00,73.2,38.2,29.82,West,270,0.0,0.0,28,0.00,,,0.00,VWS V14.01,2013-07-12 02:52:00,
2013-07-11 21:54:00,73.2,38.2,29.82,West,270,0.0,0.0,28,0.00,,,0.00,VWS V14.01,2013-07-12 02:54:00,
2013-07-11 21:56:00,73.2,39.1,29.82,West,270,0.0,0.0,29,0.00,,,0.00,VWS V14.01,2013-07-12 02:56:00,
2013-07-11 21:58:00,73.4,38.3,29.82,West,270,0.0,0.0,28,0.00,,,0.00,VWS V14.01,2013-07-12 02:58:00,
2013-07-11 22:00:00,73.2,39.1,29.82,West,270,0.0,0.0,29,0.00,,,0.00,VWS V14.01,2013-07-12 03:00:00,
2013-07-11 22:01:00,73.2,39.1,29.82,West,270,0.0,0.0,29,0.00,,,0.00,VWS V14.01,2013-07-12 03:01:00,
2013-07-11 22:02:00,73.2,39.1,29.82,West,270,0.0,0.0,29,0.00,,,0.00,VWS V14.01,2013-07-12 03:02:00,
2013-07-11 22:04:00,73.2,39.1,29.82,West,270,0.0,0.0,29,0.00,,,0.00,VWS V14.01,2013-07-12 03:04:00,
2013-07-11 22:06:00,73.2,39.1,29.82,West,270,0.0,0.0,29,0.00,,,0.00,VWS V14.01,2013-07-12 03:06:00,
2013-07-11 22:08:00,73.0,38.9,29.82,West,270,0.0,0.0,29,0.00,,,0.00,VWS V14.01,2013-07-12 03:08:00,
2013-07-11 22:10:00,73.0,38.9,29.82,West,270,0.0,0.0,29,0.00,,,0.00,VWS V14.01,2013-07-12 03:10:00,
2013-07-11 22:11:00,73.0,38.9,29.82,West,270,0.0,0.0,29,0.00,,,0.00,VWS V14.01,2013-07-12 03:11:00,
2013-07-11 22:12:00,73.0,39.8,29.82,West,270,0.0,0.0,30,0.00,,,0.00,VWS V14.01,2013-07-12 03:12:00,
2013-07-11 22:14:00,73.0,39.8,29.82,West,270,0.0,0.0,30,0.00,,,0.00,VWS V14.01,2013-07-12 03:14:00,
2013-07-11 22:16:00,72.9,39.7,29.82,NNW,338,0.0,0.0,30,0.00,,,0.00,VWS V14.01,2013-07-12 03:16:00,
2013-07-11 22:18:00,72.9,39.7,29.82,West,270,0.0,0.0,30,0.00,,,0.00,VWS V14.01,2013-07-12 03:18:00,
2013-07-11 22:20:00,72.9,39.7,29.82,West,270,0.0,0.0,30,0.00,,,0.00,VWS V14.01,2013-07-12 03:20:00,
2013-07-11 22:21:00,72.9,39.7,29.82,West,270,0.0,0.0,30,0.00,,,0.00,VWS V14.01,2013-07-12 03:21:00,
2013-07-11 22:22:00,72.7,39.5,29.82,West,270,0.0,0.0,30,0.00,,,0.00,VWS V14.01,2013-07-12 03:22:00,
2013-07-11 22:24:00,72.7,40.3,29.82,West,270,0.0,0.0,31,0.00,,,0.00,VWS V14.01,2013-07-12 03:24:00,
2013-07-11 22:26:00,72.7,40.3,29.82,West,270,0.0,0.0,31,0.00,,,0.00,VWS V14.01,2013-07-12 03:26:00,
2013-07-11 22:28:00,72.5,40.2,29.82,SSW,202,0.0,0.0,31,0.00,,,0.00,VWS V14.01,2013-07-12 03:28:00,
2013-07-11 22:30:00,72.5,40.2,29.82,SSW,202,0.0,0.0,31,0.00,,,0.00,VWS V14.01,2013-07-12 03:30:00,
2013-07-11 22:31:00,72.5,40.2,29.82,SSW,202,0.0,0.0,31,0.00,,,0.00,VWS V14.01,2013-07-12 03:31:00,
2013-07-11 22:32:00,72.3,40.0,29.82,SSW,202,0.0,0.0,31,0.00,,,0.00,VWS V14.01,2013-07-12 03:32:00,
2013-07-11 22:34:00,72.3,40.0,29.82,SSW,202,0.0,0.0,31,0.00,,,0.00,VWS V14.01,2013-07-12 03:34:00,
2013-07-11 22:36:00,72.1,39.9,29.82,SSW,202,0.0,0.0,31,0.00,,,0.00,VWS V14.01,2013-07-12 03:36:00,
2013-07-11 22:38:00,72.0,39.7,29.82,SSW,202,0.0,0.0,31,0.00,,,0.00,VWS V14.01,2013-07-12 03:38:00,
2013-07-11 22:40:00,72.0,39.7,29.82,SSW,202,0.0,0.0,31,0.00,,,0.00,VWS V14.01,2013-07-12 03:40:00,
2013-07-11 22:41:00,72.0,39.7,29.82,SSW,202,0.0,0.0,31,0.00,,,0.00,VWS V14.01,2013-07-12 03:41:00,
2013-07-11 22:42:00,72.0,39.7,29.82,SSW,202,0.0,0.0,31,0.00,,,0.00,VWS V14.01,2013-07-12 03:42:00,
2013-07-11 22:44:00,72.0,39.7,29.82,SSW,202,0.0,0.0,31,0.00,,,0.00,VWS V14.01,2013-07-12 03:44:00,
2013-07-11 22:46:00,72.0,39.7,29.82,SSW,202,0.0,0.0,31,0.00,,,0.00,VWS V14.01,2013-07-12 03:46:00,
2013-07-11 22:48:00,71.8,40.4,29.82,SSW,202,0.0,0.0,32,0.00,,,0.00,VWS V14.01,2013-07-12 03:48:00,
2013-07-11 22:50:00,71.8,40.4,29.82,SSW,202,0.0,0.0,32,0.00,,,0.00,VWS V14.01,2013-07-12 03:50:00,
2013-07-11 22:51:00,71.8,40.4,29.82,SSW,202,0.0,0.0,32,0.00,,,0.00,VWS V14.01,2013-07-12 03:51:00,
2013-07-11 22:52:00,71.8,40.4,29.82,SSW,202,0.0,0.0,32,0.00,,,0.00,VWS V14.01,2013-07-12 03:52:00,
2013-07-11 22:54:00,71.8,40.4,29.82,SSW,202,0.0,0.0,32,0.00,,,0.00,VWS V14.01,2013-07-12 03:54:00,
2013-07-11 22:56:00,71.6,40.2,29.82,SSW,202,0.0,0.0,32,0.00,,,0.00,VWS V14.01,2013-07-12 03:56:00,
2013-07-11 22:58:00,71.4,40.0,29.82,SSW,202,0.0,0.0,32,0.00,,,0.00,VWS V14.01,2013-07-12 03:58:00,
2013-07-11 23:00:00,71.4,40.0,29.82,SSW,202,0.0,0.0,32,0.00,,,0.00,VWS V14.01,2013-07-12 04:00:00,
2013-07-11 23:01:00,71.4,40.0,29.82,SSW,202,0.0,0.0,32,0.00,,,0.00,VWS V14.01,2013-07-12 04:01:00,
2013-07-11 23:02:00,71.2,39.9,29.82,SSW,202,0.0,0.0,32,0.00,,,0.00,VWS V14.01,2013-07-12 04:02:00,
2013-07-11 23:04:00,71.2,39.9,29.82,SSW,202,0.0,0.0,32,0.00,,,0.00,VWS V14.01,2013-07-12 04:04:00,
2013-07-11 23:06:00,71.1,39.7,29.82,SSW,202,0.0,0.0,32,0.00,,,0.00,VWS V14.01,2013-07-12 04:06:00,
2013-07-11 23:08:00,70.9,39.6,29.82,NW,315,0.0,0.0,32,0.00,,,0.00,VWS V14.01,2013-07-12 04:08:00,
2013-07-11 23:10:00,70.9,40.4,29.82,NW,315,0.0,0.0,33,0.00,,,0.00,VWS V14.01,2013-07-12 04:10:00,
2013-07-11 23:11:00,70.9,40.4,29.82,NW,315,0.0,0.0,33,0.00,,,0.00,VWS V14.01,2013-07-12 04:11:00,
2013-07-11 23:12:00,70.7,40.2,29.82,SSW,202,0.0,0.0,33,0.00,,,0.00,VWS V14.01,2013-07-12 04:12:00,
2013-07-11 23:14:00,70.7,40.2,29.80,SSW,202,0.0,0.0,33,0.00,,,0.00,VWS V14.01,2013-07-12 04:14:00,
2013-07-11 23:16:00,70.7,40.2,29.79,South,180,0.0,0.0,33,0.00,,,0.00,VWS V14.01,2013-07-12 04:16:00,
2013-07-11 23:18:00,70.7,40.2,29.80,NW,315,0.0,0.0,33,0.00,,,0.00,VWS V14.01,2013-07-12 04:18:00,
2013-07-11 23:20:00,70.7,40.2,29.80,NW,315,0.0,0.0,33,0.00,,,0.00,VWS V14.01,2013-07-12 04:20:00,
2013-07-11 23:21:00,70.7,40.2,29.79,NW,315,0.0,0.0,33,0.00,,,0.00,VWS V14.01,2013-07-12 04:21:00,
2013-07-11 23:22:00,70.7,40.2,29.80,NW,315,0.0,0.0,33,0.00,,,0.00,VWS V14.01,2013-07-12 04:22:00,
2013-07-11 23:24:00,70.7,40.2,29.80,NW,315,0.0,0.0,33,0.00,,,0.00,VWS V14.01,2013-07-12 04:24:00,
2013-07-11 23:26:00,70.7,40.2,29.79,NW,315,0.0,0.0,33,0.00,,,0.00,VWS V14.01,2013-07-12 04:26:00,
2013-07-11 23:28:00,70.7,40.2,29.82,NW,315,0.0,0.0,33,0.00,,,0.00,VWS V14.01,2013-07-12 04:28:00,
2013-07-11 23:30:00,70.7,40.2,29.82,SSW,202,0.0,1.1,33,0.00,,,0.00,VWS V14.01,2013-07-12 04:30:00,
2013-07-11 23:31:00,70.7,40.2,29.82,SSW,202,0.0,1.1,33,0.00,,,0.00,VWS V14.01,2013-07-12 04:31:00,
2013-07-11 23:32:00,70.7,41.0,29.82,SSW,202,0.0,0.0,34,0.00,,,0.00,VWS V14.01,2013-07-12 04:32:00,
2013-07-11 23:34:00,70.7,41.0,29.82,SSW,202,4.7,4.7,34,0.00,,,0.00,VWS V14.01,2013-07-12 04:34:00,
2013-07-11 23:36:00,70.7,41.0,29.82,SSW,202,2.7,2.7,34,0.00,,,0.00,VWS V14.01,2013-07-12 04:36:00,
2013-07-11 23:38:00,70.7,41.0,29.82,South,180,0.0,0.9,34,0.00,,,0.00,VWS V14.01,2013-07-12 04:38:00,
2013-07-11 23:40:00,70.7,41.0,29.82,SSW,202,7.4,7.4,34,0.00,,,0.00,VWS V14.01,2013-07-12 04:40:00,
2013-07-11 23:41:00,70.7,41.0,29.82,SSW,202,7.4,7.4,34,0.00,,,0.00,VWS V14.01,2013-07-12 04:41:00,
2013-07-11 23:42:00,70.7,41.0,29.82,SSW,202,6.0,6.0,34,0.00,,,0.00,VWS V14.01,2013-07-12 04:42:00,
2013-07-11 23:44:00,70.7,41.0,29.82,SW,225,4.0,4.0,34,0.00,,,0.00,VWS V14.01,2013-07-12 04:44:00,
2013-07-11 23:46:00,70.7,41.0,29.82,SW,225,4.0,4.0,34,0.00,,,0.00,VWS V14.01,2013-07-12 04:46:00,
2013-07-11 23:48:00,70.9,40.4,29.82,SSW,202,8.1,8.1,33,0.00,,,0.00,VWS V14.01,2013-07-12 04:48:00,
2013-07-11 23:50:00,70.9,40.4,29.82,SSE,158,3.4,3.4,33,0.00,,,0.00,VWS V14.01,2013-07-12 04:50:00,
2013-07-11 23:51:00,70.9,40.4,29.82,SSE,158,3.4,3.4,33,0.00,,,0.00,VWS V14.01,2013-07-12 04:51:00,
2013-07-11 23:52:00,71.1,40.5,29.82,South,180,4.7,4.7,33,0.00,,,0.00,VWS V14.01,2013-07-12 04:52:00,
2013-07-11 23:54:00,71.1,40.5,29.82,South,180,4.7,4.7,33,0.00,,,0.00,VWS V14.01,2013-07-12 04:54:00,
2013-07-11 23:56:00,71.1,40.5,29.82,WSW,248,4.7,4.7,33,0.00,,,0.00,VWS V14.01,2013-07-12 04:56:00,
2013-07-11 23:58:00,71.2,40.7,29.80,ESE,112,12.1,12.1,33,0.00,,,0.00,VWS V14.01,2013-07-12 04:58:00,